[[{"header":{"parameterUnit":"m.s-1","parameterCategory":1,"la1":30.6,"la2":29.2853,"lo1":-89.7004,"lo2":-87.6739,"dy":0.0162,"dx":0.0183,"nx":112,"ny":82,"refTime":"2025-12-16T12:00:00:Z","depth":0,"parameterNumber":2,"parameterNumberName":"U-component_of_WINDS"},"data":[0.0,0.0,0.0,0.0,0.0,0.0,0.0,0.0,0.0,0.0,0.0,0.0,0.0,0.0,0.0,0.0,0.0,0.0,0.0,0.0,0.0,0.0,0.0,0.0,0.0,0.0,0.0,0.0,0.0,0.0,0.0,0.0,0.0,0.0,0.0,0.0,0.0,0.0,0.0,0.0,0.0,0.0,0.0,0.0,0.0,0.0,0.0,0.0,0.0,0.0,0.0,0.0,0.0,0.0,0.0,0.0,0.0,0.0,0.0,0.0,0.0,0.0,0.0,0.0,0.0,0.0,0.0,0.0,0.0,0.0,0.0,0.0,0.0,0.0,0.0,0.0,0.0,0.0,0.0,0.0,0.0,0.0,0.0,0.0,0.0,0.0,0.0,0.0,0.0,0.0,0.0,0.5716,0.7767,0.8918,0.8837,0.6665,0.4581,0.2829,0.0,0.0,0.0,0.0,0.0,0.0,0.0,0.0,0.0,0.0,0.0,0.0,0.0,0.0,0.0,0.0,0.0,0.0,0.0,0.0,0.0,0.0,0.0,0.0,0.0,0.0,0.0,0.0,0.0,0.0,0.0,0.0,0.0,0.0,0.0,0.0,0.0,0.0,0.0,0.0,0.0,0.0,0.0,0.0,0.0,0.0,0.0,0.0,0.0,0.0,0.0,0.0,0.0,0.0,0.0,0.0,0.0,0.0,0.0,0.0,0.0,0.0,0.0,0.0,0.0,0.0,0.0,0.0,0.0,0.0,0.0,0.0,0.0,0.0,0.0,0.0,0.0,0.0,0.0,0.0,0.0,0.0,0.0,0.0,0.0,0.0,0.0,0.0,0.0,0.0,0.0,0.0,0.0,0.0,0.0,0.0,0.0,0.0,0.0,0.0,0.0,0.0,0.0,0.0,0.562,0.8268,0.9456,0.9883,0.9419,0.7223,0.5145,0.3379,0.0,0.0,0.0,0.0,0.0,0.0,0.0,0.0,0.0,0.0,0.0,0.0,0.0,0.0,0.0,0.0,0.0,0.0,0.0,0.0,0.0,0.0,0.0,0.0,0.0,0.0,0.0,0.0,0.0,0.0,0.0,0.0,0.0,0.0,0.0,0.0,0.0,0.0,0.0,0.0,0.0,0.0,0.0,0.0,0.0,0.0,0.0,0.0,0.0,0.0,0.0,0.0,0.0,0.0,0.0,0.0,0.0,0.0,0.0,0.0,0.0,0.0,0.0,0.0,0.0,0.0,0.0,0.0,0.0,0.0,0.0,0.0,0.0,0.0,0.0,0.0,0.0,0.0,0.0,0.0,0.0,0.0,0.0,0.0,0.0,0.0,0.0,0.0,0.0,0.0,0.0,0.0,0.0,0.0,0.0,0.0,0.0,0.0,0.0,0.0,0.0,0.0,0.0,0.5485,0.7549,0.9148,1.0135,1.036,0.9558,0.7924,0.6059,0.4014,0.2045,0.0,0.0,0.0,0.0,0.0,0.0,0.0,0.0,0.0,0.0,0.0,0.0,0.0,0.0,0.0,0.0,0.0,0.0,0.0,0.0,0.0,0.0,0.0,0.0,0.0,0.0,0.0,0.0,0.0,0.0,0.0,0.0,0.0,0.0,0.0,0.0,0.0,0.0,0.0,0.0,0.0,0.0,0.0,0.0,0.0,0.0,0.0,0.0,0.0,0.0,0.0,0.0,0.0,0.0,0.0,0.0,0.0,0.0,0.0,0.0,0.0,0.0,0.0,0.0,0.0,0.0,0.0,0.0,0.0,0.0,0.0,0.0,0.0,0.0,0.0,0.0,0.0,0.0,0.0,0.0,0.0,0.0,0.0,0.0,0.0,0.0,0.0,0.0,0.0,0.0,0.0,0.0,0.0,0.0,0.0,0.0,0.0,0.0,0.0,0.0,0.0,0.0,0.7457,0.8983,0.9602,1.0475,1.0696,0.9923,0.8535,0.6772,0.4626,0.28,0.0,0.0,0.0,0.0,0.0,0.0,0.0,0.0,0.0,0.0,0.0,0.0,0.0,0.0,0.0,0.0,0.0,0.0,0.0,0.0,0.0,0.0,0.0,0.0,0.0,0.0,0.0,0.0,0.0,0.0,0.0,0.0,0.0,0.0,0.0,0.0,0.0,0.0,0.0,0.0,0.0,0.0,0.0,0.0,0.0,0.0,0.0,0.0,0.0,0.0,0.0,0.0,0.0,0.0,0.0,0.0,0.0,0.0,0.0,0.0,0.0,0.0,0.0,0.0,0.0,0.0,0.0,0.0,0.0,0.0,0.0,0.0,0.0,0.0,0.0,0.0,0.0,0.0,0.0,0.0,0.0,0.0,0.0,0.0,0.0,0.0,0.0,0.0,0.0,0.0,0.0,0.0,0.0,0.0,0.0,0.0,0.0,0.0,0.0,0.0,0.0,0.0,0.8224,0.9628,1.0088,1.0657,1.0981,1.0905,0.8935,0.695,0.5167,0.3007,0.0,0.0,0.0,0.0,0.0,0.0,0.0,0.0,0.0,0.0,0.0,0.0,0.0,0.0,0.0,0.0,0.0,0.0,0.0,0.0,0.0,0.0,0.0,0.0,0.0,0.0,0.0,0.0,0.0,0.0,0.0,0.0,0.0,0.0,0.0,0.0,0.0,0.0,0.0,0.0,0.0,0.0,0.0,0.0,0.0,0.0,0.0,0.0,0.0,0.0,0.0,0.0,0.0,0.0,0.0,0.0,0.0,0.0,0.0,0.0,0.0,0.0,0.0,0.0,0.0,0.0,0.0,0.0,0.0,0.0,0.0,0.0,0.0,0.0,0.0,0.0,0.0,0.0,0.0,0.0,0.0,0.0,0.0,0.0,0.0,0.0,0.0,0.0,0.0,0.0,0.0,0.0,0.0,0.0,0.0,0.0,0.0,0.0,0.0,0.0,0.0,0.0,0.8913,1.0214,0.0,1.0705,1.0886,1.0592,0.8876,0.7052,0.5213,0.0,0.0,0.0,0.0,0.0,0.0,0.0,0.0,0.0,0.0,0.0,0.0,0.0,0.0,0.0,0.0,0.0,0.0,0.0,0.0,0.0,0.0,0.0,0.0,0.0,0.0,0.0,0.0,0.0,0.0,0.0,0.0,0.0,0.0,0.0,0.0,0.0,0.0,0.0,0.0,0.0,0.0,0.0,0.0,0.0,0.0,0.0,0.0,0.0,0.0,0.0,0.0,0.0,0.0,0.0,0.0,0.0,0.0,0.0,0.0,0.0,0.0,0.0,0.0,0.0,0.0,0.0,0.0,0.0,0.0,0.0,0.0,0.0,0.0,0.0,0.0,0.0,0.0,0.0,0.0,0.0,0.0,0.0,0.0,0.0,0.0,0.0,0.0,0.0,0.0,0.0,0.0,0.0,0.0,0.0,0.0,0.0,0.0,0.0,0.0,0.0,0.0,0.7841,0.9609,1.0831,0.0,1.1223,1.1193,1.0664,0.9067,0.7217,0.513,0.0,0.0,0.0,0.0,0.0,0.0,0.0,0.0,0.0,0.0,0.0,0.0,0.0,0.0,0.0,0.0,0.0,0.0,0.0,0.0,0.0,0.0,0.0,0.0,0.0,0.0,0.0,0.0,0.0,0.0,0.0,0.0,0.0,0.0,0.0,0.0,0.0,0.0,0.0,0.0,0.0,0.0,0.0,0.0,0.0,0.0,0.0,0.0,0.0,0.0,0.0,0.0,0.0,0.0,0.0,0.0,0.0,0.0,0.0,0.0,0.0,0.0,0.0,0.0,0.0,0.0,0.0,0.0,0.0,0.0,0.0,0.0,0.0,0.0,0.0,0.0,0.0,0.0,0.0,0.0,0.0,0.0,0.0,0.0,0.0,0.0,0.0,0.0,0.0,0.0,0.0,0.0,0.0,0.0,0.0,0.0,0.0,0.0,0.0,0.0,0.0,0.0,0.8972,1.0339,1.149,1.22,1.2287,1.201,1.1332,0.9561,0.7424,0.0,0.0,0.0,0.0,0.0,0.0,0.0,0.0,0.0,0.0,0.0,0.0,0.0,0.0,0.0,0.0,0.0,0.0,0.0,0.0,0.0,0.0,0.0,0.0,0.0,0.0,0.0,0.0,0.0,0.0,0.0,0.0,0.0,0.0,0.0,0.0,0.0,0.0,0.0,0.0,0.0,0.0,0.0,0.0,0.0,0.0,0.0,0.0,0.0,0.0,0.0,0.0,0.0,0.0,0.0,0.0,0.0,0.0,0.0,0.0,0.0,0.0,0.0,0.0,0.0,0.0,0.0,0.0,0.0,0.0,0.0,0.0,0.0,0.0,0.0,0.0,0.0,0.0,0.0,0.0,0.0,0.0,0.0,0.0,0.0,0.0,0.0,0.0,0.0,0.0,0.0,0.0,0.0,0.0,0.0,0.0,0.0,0.0,0.0,0.0,0.0,0.0,0.0,0.0,1.0738,1.1881,1.181,1.138,1.0824,1.0102,0.8435,0.6454,0.4156,0.0,0.0,0.0,0.0,0.0,0.0,0.0,0.0,0.0,0.0,0.0,0.0,0.0,0.0,0.0,0.0,0.0,0.0,0.0,0.0,0.0,0.0,0.0,0.0,0.0,0.0,0.0,0.0,0.0,0.0,0.0,0.0,0.0,0.0,0.0,0.0,0.0,0.0,0.0,0.0,0.0,0.0,0.0,0.0,0.0,0.0,0.0,0.0,0.0,0.0,0.0,0.0,0.0,0.0,0.0,0.0,0.0,0.0,0.0,0.0,0.0,0.0,0.0,0.0,0.0,0.0,0.0,0.0,0.0,0.0,0.0,0.0,0.0,0.0,0.0,0.0,0.0,0.0,0.0,0.0,0.0,0.0,0.0,0.0,0.0,0.0,0.0,0.0,0.0,0.0,0.0,0.0,0.0,0.0,0.0,0.0,0.0,0.0,0.0,0.0,0.0,0.0,0.9684,1.1351,1.2279,1.1736,1.1329,1.0555,0.93,0.7716,0.5861,0.3673,0.0,0.0,0.0,0.0,0.0,0.0,0.0,0.0,0.0,0.0,0.0,0.0,0.0,0.0,0.0,0.0,0.0,0.0,0.0,0.0,0.0,0.0,0.0,0.0,0.0,0.0,0.0,0.0,0.0,0.0,0.0,0.0,0.0,0.0,0.0,0.0,0.0,0.0,0.0,0.0,0.0,0.0,0.0,0.0,0.0,0.0,0.0,0.0,0.0,0.0,0.0,0.0,0.0,0.0,0.0,0.0,0.0,0.0,0.0,0.0,0.0,0.0,0.0,0.0,0.0,0.0,0.0,0.0,0.0,0.0,0.0,0.0,0.0,0.0,0.0,0.0,0.0,0.0,0.0,0.0,0.0,0.0,0.0,0.0,0.0,0.0,0.0,0.0,0.0,0.0,0.0,0.0,0.0,0.0,0.0,0.0,0.0,0.0,0.0,0.0,0.0,0.0,1.0602,1.1925,1.2476,1.1864,1.1632,1.073,0.875,0.7195,0.5416,0.3317,0.0,0.0,0.0,0.0,0.0,0.0,0.0,0.0,0.0,0.0,0.0,0.0,0.0,0.0,0.0,0.0,0.0,0.0,0.0,0.0,0.0,0.0,0.0,0.0,0.0,0.0,0.0,0.0,0.0,0.0,0.0,0.0,0.0,0.0,0.0,0.0,0.0,0.0,0.0,0.0,0.0,0.0,0.0,0.0,0.0,0.0,0.0,0.0,0.0,0.0,0.0,0.0,0.0,0.0,0.0,0.0,0.0,0.0,0.0,0.0,-0.8345,0.0,0.0,0.0,0.0,0.0,0.0,0.0,0.0,0.0,0.0,0.0,0.0,0.0,0.0,0.0,0.0,0.0,0.0,0.0,0.0,0.0,0.0,0.0,0.0,0.0,0.0,0.0,0.0,0.0,0.0,0.0,0.0,0.0,0.0,0.0,0.0,0.0,0.0,0.0,0.0,0.0,1.0551,1.1074,1.14,1.1765,1.035,0.8952,0.7923,0.6008,0.417,0.2532,0.0,0.0,0.0,0.0,0.0,0.0,0.0,0.0,0.0,0.0,0.0,0.0,0.0,0.0,0.0,0.0,0.0,0.0,0.0,0.0,0.0,0.0,0.0,0.0,0.0,0.0,0.0,0.0,0.0,0.0,0.0,0.0,0.0,0.0,0.0,0.0,0.0,0.0,0.0,0.0,0.0,0.0,0.0,0.0,0.0,0.0,0.0,0.0,0.0,0.0,0.0,0.0,0.0,0.0,0.0,0.0,0.0,0.0,0.0,0.0,0.0,-0.8587,0.0,0.0,0.0,0.0,0.0,0.0,0.0,0.0,0.0,0.0,0.0,0.0,0.0,0.0,0.0,0.0,0.0,0.0,0.0,0.0,0.0,0.0,0.0,0.0,0.0,0.0,0.0,0.0,0.0,0.0,0.0,0.0,0.0,0.0,0.0,0.0,0.0,0.0,0.0,0.0,1.0357,1.0698,1.0813,1.0838,0.9563,0.8258,0.7202,0.5458,0.3935,0.2843,0.173,0.0,0.0,0.0,0.0,0.0,0.0,0.0,0.0,0.0,0.0,0.0,0.0,0.0,0.0,0.0,0.0,0.0,0.0,0.0,0.0,0.0,0.0,0.0,0.0,0.0,0.0,0.0,0.0,0.0,0.0,0.0,0.0,0.0,0.0,0.0,0.0,0.0,0.0,0.0,0.0,0.0,0.0,0.0,0.0,0.0,0.0,0.0,0.0,0.0,0.0,0.0,0.0,0.0,-0.3863,-0.3482,-0.2773,-0.2785,-0.3846,-0.5722,-0.7017,-0.7924,-0.8502,0.0,0.0,0.0,0.0,0.0,0.0,0.0,0.0,0.0,0.0,0.0,0.0,0.0,0.0,0.0,0.0,0.0,0.0,0.0,0.0,0.0,0.0,0.0,0.0,0.0,0.0104,0.0555,0.0,0.0,0.0,0.0,0.0,0.0,0.0,0.0,0.0,0.0,0.0,0.0,1.0176,1.043,1.0332,0.9847,0.8927,0.7874,0.6691,0.5121,0.3966,0.3428,0.2063,0.1284,0.0,0.0,0.0,0.0,0.0,0.0,0.0,0.0,0.0,0.0,0.0,0.0,0.0,0.0,0.0,0.0,0.0,0.0,0.0,0.0,0.0,0.0,0.0,0.0,0.0,0.0,0.0,0.0,0.0,0.0,0.0,0.0,-1.4753,-1.2736,0.0,0.0,0.0,0.0,0.0,0.0,0.0,0.0,0.0,0.0,0.0,0.0,0.0,-0.4723,-0.4705,-0.3834,-0.3277,-0.3044,-0.3265,-0.3256,-0.3033,-0.3178,-0.3345,-0.3577,-0.462,0.0,-0.7967,-0.8804,0.0,0.0,0.0,0.0,0.0,0.0,0.0,0.0,0.0,0.0,0.0,0.0,0.0,0.0,0.0,0.0,0.0,0.0,0.0,0.0,0.0,0.0,0.255,0.253,0.2632,0.2704,0.0,0.2133,0.1519,0.1313,0.2642,0.0,0.0,0.0,0.0,0.0,0.0,0.0,1.0146,0.9788,0.9505,0.9766,0.8045,0.6799,0.6615,0.4659,0.3425,0.34,0.2565,0.2063,0.2063,0.1341,0.0,0.0,0.0,0.0,0.0,0.0,0.0,0.0,0.0,0.0,0.0,0.0,0.0,0.0,0.0,0.0,0.0,0.0,0.0,0.0,0.0,0.0,0.0,0.0,0.0,0.0,0.0,0.0,0.0,-1.3866,-1.3723,-1.1355,-1.1397,-1.1072,0.0,0.0,0.0,0.0,0.0,0.0,0.0,0.0,0.0,-0.4852,-0.349,-0.2751,-0.2837,-0.1194,-0.0301,-0.0252,-0.0391,-0.0395,-0.0391,-0.1099,-0.1801,-0.2391,-0.2819,-0.3873,-0.544,-0.7383,-0.7727,-0.7067,0.0,0.0,0.0,0.0,-0.5515,-0.4765,-0.3949,-0.3001,0.0,-0.162,0.0,0.0,0.0,0.0,0.0,0.0,0.0,0.0,0.0,0.0,0.0,0.3102,0.3104,0.3104,0.3104,0.3237,0.3243,0.0,0.4055,0.4898,0.4583,0.0,0.0,0.0,0.0,0.0,0.989,0.9506,0.9207,0.9239,0.7658,0.6588,0.6588,0.4999,0.4017,0.4125,0.3413,0.2805,0.2387,0.1623,0.0997,0.0,0.0,0.0,0.0,0.0,0.0,0.0,0.0,0.0,0.0,0.0,0.0,0.0,0.0,0.0,0.0,0.0,0.0,0.0,0.0,0.0,0.0,0.0,0.0,0.0,0.0,0.0,0.0,-1.2487,-1.2392,-0.9759,-0.9836,-0.946,0.0,0.0,0.0,0.0,0.0,0.0,-0.4374,-0.3839,-0.3279,-0.2702,-0.1409,-0.0563,-0.0255,0.1408,0.2262,0.2271,0.2263,0.2281,0.2236,0.1344,0.0448,-0.0447,-0.076,-0.1461,-0.2649,-0.5355,-0.6552,-0.6685,-0.6234,-0.5683,-0.5078,-0.4743,-0.4123,-0.3293,-0.2547,-0.1728,-0.0865,-0.0228,0.0,0.0369,-0.0179,0.0,0.0,0.0,0.0,0.3599,0.3871,0.3922,0.3901,0.3928,0.3904,0.3904,0.3904,0.453,0.495,0.0,0.5132,0.581,0.5693,0.0,0.0,0.0,0.0,0.9967,0.9813,0.957,0.9297,0.8931,0.7827,0.7005,0.6701,0.5609,0.488,0.4771,0.4242,0.3687,0.3132,0.2151,0.131,0.0655,0.0,0.0,0.0,0.0,0.0,0.0,0.0,0.0,0.0,0.0,0.0,0.0,0.0,0.0,0.0,0.0,0.0,0.0,0.0,0.0,0.0,0.0,0.0,0.0,0.0,0.0,0.0,0.0,0.0,-0.8675,-0.8162,0.0,0.0,0.0,0.0,-0.4405,-0.4539,-0.3816,-0.1877,-0.1748,-0.0733,0.1424,0.159,0.2185,0.3336,0.3433,0.3523,0.352,0.3523,0.3525,0.3525,0.3436,0.3392,0.3258,0.2101,0.0937,-0.0355,-0.2652,-0.3493,-0.3342,-0.3297,-0.3295,-0.3128,-0.2172,-0.1755,-0.1587,-0.0503,-0.0124,-0.0041,0.0,0.0757,0.1685,0.1677,0.2489,0.0,0.0,0.4791,0.501,0.5889,0.6131,0.6135,0.6141,0.6141,0.6141,0.6141,0.618,0.5857,0.0,0.5293,0.6254,0.7066,0.0,0.8784,0.9477,1.037,1.0728,1.0137,1.008,0.9824,0.9251,0.8769,0.8057,0.6966,0.6409,0.5757,0.4938,0.4847,0.482,0.4796,0.3287,0.2427,0.2361,0.0806,0.0,0.0,0.0,0.0,0.0,0.0,0.0,0.0,0.0,0.0,0.0,0.0,0.0,0.0,0.0,0.0,0.0,0.0,0.0,0.0,0.0,0.0,0.0,0.0,0.0,0.0,0.0,0.0,-0.612,-0.5996,0.0,-0.4269,-0.3485,-0.2579,-0.1462,-0.0823,0.0174,0.1657,0.1757,0.2118,0.2914,0.2936,0.317,0.3614,0.4374,0.4776,0.4776,0.4776,0.4776,0.4732,0.3972,0.3614,0.357,0.3126,0.2722,0.2271,0.1458,-0.0702,-0.3361,-0.2578,-0.2273,-0.2011,-0.0131,0.0568,0.0742,0.1895,0.2302,0.2323,0.2332,0.2597,0.3073,0.3712,0.4216,0.4772,0.567,0.5949,0.5996,0.622,0.63,0.63,0.63,0.63,0.63,0.63,0.63,0.6356,0.6585,0.6923,0.7434,0.8297,0.9195,0.9796,0.9937,1.0535,1.0848,1.0486,1.0234,0.9967,0.9566,0.897,0.8212,0.7237,0.6568,0.5856,0.5078,0.5022,0.4554,0.3538,0.2923,0.2096,0.092,0.0314,0.0,0.0,0.0,0.0,0.0,0.0,0.0,0.0,0.0,0.0,0.0,0.0,0.0,0.0,0.0,0.0,0.0,0.0,0.0,0.0,0.0,0.0,0.0,0.0,0.0,0.0,0.0,-0.5542,-0.4315,-0.3654,-0.2931,-0.2013,-0.0588,0.0591,0.1353,0.2077,0.279,0.3571,0.3614,0.3792,0.4194,0.4196,0.4372,0.4772,0.5578,0.5983,0.5983,0.5983,0.5983,0.5935,0.5129,0.4772,0.4772,0.4372,0.4196,0.4194,0.3748,0.1737,-0.1113,-0.0312,0.0,0.0223,0.1832,0.2413,0.2543,0.3341,0.3617,0.359,0.3606,0.3877,0.4324,0.4994,0.5474,0.5906,0.6437,0.6549,0.6545,0.6351,0.63,0.63,0.63,0.63,0.6377,0.6718,0.6795,0.7211,0.8533,0.8271,0.8197,0.9464,1.0166,1.0557,1.0695,1.106,1.1182,1.0787,1.0534,1.0261,0.9873,0.949,0.8746,0.7471,0.7019,0.6341,0.5264,0.5209,0.4593,0.3209,0.2845,0.1993,0.0458,0.0164,0.0,0.0,0.0,0.0,0.0,0.0,0.0,0.0,0.0,0.0,0.0,0.0,0.0,0.0,0.0,0.0,0.0,0.0,0.0,0.0,0.0,0.0,0.0,0.0,0.0,-0.4395,-0.467,-0.4235,-0.3223,-0.1066,0.0373,0.0493,0.2643,0.3959,0.3878,0.3869,0.3832,0.3708,0.3703,0.4239,0.5403,0.5447,0.5983,0.7095,0.7095,0.7095,0.7095,0.7095,0.7095,0.7095,0.7095,0.7095,0.7051,0.5938,0.5447,0.5359,0.4194,0.3703,0.3703,0.3614,0.3614,0.3614,0.3659,0.3659,0.3703,0.3703,0.3701,0.3698,0.3724,0.4489,0.5432,0.5458,0.6204,0.7034,0.6783,0.6702,0.663,0.6378,0.63,0.63,0.6338,0.6338,0.6602,0.7633,0.7859,0.8423,1.0409,0.921,0.8533,1.0522,1.0864,1.1077,1.181,1.1913,0.0,1.1096,1.1009,1.0788,1.019,1.0414,0.9762,0.771,0.7792,0.7232,0.5498,0.5402,0.4997,0.4054,0.3182,0.228,0.1344,0.0472,0.0034,0.0034,0.0,0.0,0.0,0.0,0.0,0.0,0.0,0.0,0.0,0.0,0.0,0.0,0.0,0.0,0.0,0.0,0.0,0.0,0.0,0.0,0.0,0.0,0.0758,-0.0816,0.0466,0.1608,0.1821,0.2509,0.2937,0.2866,0.3564,0.4328,0.5038,0.5108,0.5385,0.6118,0.6154,0.629,0.6605,0.665,0.6786,0.7095,0.7095,0.7095,0.7095,0.7095,0.7095,0.7095,0.7095,0.7095,0.7095,0.6782,0.665,0.6605,0.629,0.6154,0.5977,0.4281,0.3614,0.3703,0.4599,0.5445,0.6154,0.6154,0.6133,0.6157,0.6145,0.6354,0.6643,0.6637,0.6874,0.7034,0.6783,0.6702,0.663,0.6378,0.63,0.649,0.7215,0.7403,0.7668,0.8656,0.8879,0.9253,1.0559,1.0335,1.0372,1.1657,1.1885,1.197,1.2155,1.2004,0.0,1.1685,1.1436,1.1243,1.1049,1.0487,0.9609,0.839,0.772,0.684,0.5634,0.5562,0.5108,0.4174,0.3897,0.3064,0.1564,0.1292,0.1176,0.0,0.0,0.0,0.0,0.0,0.0,0.0,0.0,0.0,0.0,0.0,0.0,0.0,0.0,0.0,0.0,0.0,0.0,0.0,0.0,0.0,0.0,0.2692,0.354,0.2852,0.3483,0.3992,0.3899,0.4439,0.4785,0.4746,0.5314,0.5933,0.6485,0.6461,0.6661,0.72,0.7132,0.7095,0.7095,0.7095,0.7095,0.7095,0.7095,0.7095,0.7095,0.7095,0.7095,0.7095,0.7095,0.7095,0.0,0.7095,0.7095,0.7095,0.7095,0.7095,0.0,0.0,0.0,0.0,0.0,0.6517,0.7095,0.7095,0.7095,0.7095,0.7095,0.7095,0.7095,0.7095,0.7095,0.7048,0.6861,0.6797,0.6809,0.6976,0.6699,0.672,0.8102,0.8122,0.8199,0.9631,0.9933,1.0233,1.1242,1.1428,0.0,1.2187,1.2305,1.2305,1.2305,1.2158,1.204,1.1919,1.1717,1.1563,1.1409,1.051,0.9562,0.8659,0.7677,0.0,0.0,0.0,0.5284,0.4361,0.3937,0.0,0.0,0.0,0.0,0.0,0.0,0.0,0.0,0.1799,0.194,0.0,0.0,0.0,0.0,0.0,0.0,0.0,0.0,0.0,0.0,0.0,0.0,0.0,0.0,0.0,0.0,0.4762,0.6195,0.6213,0.5201,0.4458,0.4448,0.5513,0.6234,0.6211,0.7303,0.7928,0.7824,0.7695,0.755,0.7426,0.0,0.0,0.0,0.0,0.7095,0.7095,0.7095,0.7095,0.7095,0.7095,0.7095,0.7095,0.7095,0.7095,0.7095,0.7095,0.7095,0.7095,0.7095,0.7095,0.7095,0.7095,0.7095,0.7095,0.7095,0.7095,0.7095,0.7095,0.0,0.0,0.7095,0.7095,0.7095,0.7095,0.7095,0.7065,0.6927,0.6886,0.707,0.7849,0.7365,0.7215,0.911,0.8875,0.876,1.0651,1.1065,1.1334,1.2212,1.2405,1.2405,1.2405,1.2351,1.2305,1.2305,1.2305,1.2204,1.1986,1.1953,1.1782,1.1377,0.0,0.0,0.8593,0.7596,0.6704,0.5914,0.5878,0.5544,0.477,0.3832,0.3392,0.3501,0.3544,0.3658,0.3769,0.3897,0.4402,0.5274,0.4143,0.3709,0.0,0.0,0.0,0.0,0.0,0.0,0.0,0.0,0.0,0.0,0.0,0.0,0.0,0.0,0.0,0.5284,0.6503,0.7472,0.7617,0.7412,0.7205,0.7091,0.7399,0.7582,0.7482,0.7799,0.7928,0.7824,0.7787,0.7651,0.7433,0.7343,0.0,0.7098,0.7095,0.7095,0.7095,0.7095,0.7095,0.7095,0.0,0.0,0.7095,0.7095,0.7095,0.7095,0.7095,0.7095,0.7095,0.7095,0.7095,0.7095,0.7095,0.7095,0.7095,0.7095,0.7095,0.7095,0.7095,0.7095,0.7095,0.7095,0.7095,0.7095,0.7095,0.7095,0.0,0.6927,0.6886,0.7137,0.8082,0.8187,0.8581,1.0721,1.1073,1.1271,1.2472,1.2752,1.2792,1.2994,1.3039,1.3039,1.3039,1.2625,1.2305,1.2305,1.2305,1.2278,1.2225,1.2218,1.1892,1.1016,1.0014,0.9047,0.8181,0.7192,0.6535,0.6381,0.6381,0.6303,0.6103,0.5205,0.4745,0.4746,0.4748,0.4768,0.4809,0.569,0.6257,0.6531,0.5322,0.5233,0.0,0.0,0.0,0.0,0.0,0.0,0.0,0.0,0.0,0.0,0.0,0.3298,0.0,0.0,0.6824,0.6961,0.7531,0.8146,0.8909,0.9019,0.8742,0.7982,0.7941,0.7961,0.7884,0.7944,0.7958,0.788,0.7855,0.7746,0.76,0.7526,0.7685,0.8094,0.7561,0.7485,0.8017,0.7401,0.7095,0.7095,0.7095,0.7095,0.7095,0.7095,0.7095,0.7095,0.7095,0.7095,0.7095,0.7095,0.7095,0.7095,0.7095,0.7095,0.7095,0.7095,0.7095,0.7095,0.7095,0.7095,0.7095,0.7095,0.7095,0.7095,0.7095,0.7095,0.7082,0.7011,0.7422,0.8111,0.9053,0.9367,0.9916,1.1972,1.2068,1.1988,1.2969,1.3213,1.3213,1.3213,1.3213,1.3213,1.3213,1.2959,1.2759,1.2759,1.2759,1.2759,1.2759,1.2619,1.2194,1.1242,1.0099,0.9038,0.8171,0.7189,0.6586,0.6586,0.6586,0.6586,0.6586,0.6157,0.5931,0.5999,0.5999,0.6029,0.6092,0.6659,0.6916,0.6987,0.6387,0.6398,0.0,0.0,0.0,0.0,0.0,0.0,0.0,0.0,0.12,0.2798,0.4564,0.5922,0.6281,0.7359,0.8282,0.8361,0.8577,0.9118,1.0243,1.0386,0.9948,0.8871,0.8775,0.8676,0.8432,0.8382,0.8283,0.8041,0.7877,0.7841,0.7814,0.7702,0.7984,0.8766,0.7911,0.7807,0.8649,0.7674,0.7186,0.7183,0.7371,0.7491,0.7487,0.7459,0.7445,0.7448,0.7183,0.7095,0.7095,0.7095,0.7228,0.7445,0.7445,0.7445,0.7404,0.7183,0.7095,0.7095,0.7095,0.7095,0.7095,0.7095,0.7095,0.7139,0.736,0.7445,0.7489,0.7705,0.8492,0.9456,1.0351,1.0679,1.1216,1.2977,1.2764,1.2388,1.3213,1.338,1.338,1.338,1.338,1.338,1.338,1.338,1.334,1.3227,1.3213,1.3213,1.3213,1.2993,1.2447,1.1301,1.0219,0.9129,0.804,0.7222,0.6787,0.6787,0.6787,0.6787,0.6787,0.6787,0.6844,0.6923,0.6927,0.698,0.7095,0.7095,0.7095,0.7095,0.7095,0.7095,-0.7226,-0.5238,0.0,-0.2363,-0.1811,-0.0941,0.0,0.0,0.2642,0.4971,0.5743,0.6292,0.7417,0.8777,0.978,0.9752,1.073,1.1507,1.1653,1.1707,1.1604,1.1458,1.1458,1.1023,0.9899,0.9756,0.9266,0.8088,0.7975,0.7907,0.7818,0.7794,0.777,0.7764,0.7667,0.761,0.7733,0.7593,0.755,0.7546,0.8439,0.8853,0.8849,0.8741,0.8715,0.8627,0.7577,0.7095,0.7095,0.7095,0.7753,0.8715,0.8715,0.8715,0.8584,0.7489,0.7095,0.7095,0.7095,0.7095,0.7095,0.7095,0.7095,0.7316,0.8364,0.8715,0.893,0.9918,1.0308,1.0692,1.1775,1.2068,1.2408,1.3688,1.3904,1.3862,1.3988,1.3988,1.3988,1.3988,1.3988,1.3988,1.3988,1.3988,1.3814,1.3293,1.3213,1.3213,1.3213,1.318,1.2355,1.0302,0.9958,0.9101,0.7225,0.7061,0.7048,0.7048,0.7048,0.7048,0.7048,0.7048,0.7055,0.7071,0.7071,0.7082,0.7095,0.7095,0.7095,0.7095,0.7095,0.7095,-0.5328,0.0,0.0,0.0,0.0641,0.2237,0.3923,0.4388,0.4935,0.6732,0.773,0.8492,0.8969,1.0187,1.1121,0.0,1.1556,1.2188,1.2958,1.3054,1.3293,1.3874,1.3408,1.228,1.019,0.9316,0.8627,0.8038,0.7988,0.7961,0.7897,0.7894,0.8164,0.8672,0.8807,0.9181,0.9769,0.9806,0.9853,0.9895,1.0315,1.0496,1.0491,0.9641,0.8848,0.8181,0.8394,0.8477,0.8568,0.933,0.9966,1.0417,1.0417,1.0417,1.0208,0.8701,0.7709,0.7183,0.7885,0.8149,0.8277,0.8921,0.9139,0.9226,0.9749,0.9879,1.0009,1.0481,1.108,1.1681,1.22,1.2808,1.347,1.3997,1.4088,1.4088,1.4088,1.4088,1.4088,1.4088,1.4088,1.4088,1.4088,1.4088,1.4001,1.3761,1.3721,1.3721,1.3721,1.3567,1.2585,1.0305,0.8999,0.7912,0.7088,0.7061,0.7095,0.7095,0.7095,0.7095,0.7095,0.7095,0.7095,0.7095,0.7227,0.7275,0.7275,0.7366,0.7407,0.7407,0.7407,0.7407,-0.2958,0.0,0.0,0.1258,0.293,0.481,0.5784,0.6588,0.74,0.8354,0.9608,1.0534,1.0534,1.1604,0.0,1.2425,1.277,1.3301,1.4268,1.4411,1.4582,1.4918,1.4011,1.2474,1.0243,0.9118,0.8382,0.8038,0.8333,0.8382,0.8041,0.8676,0.9257,0.961,1.0127,1.0725,1.147,1.1553,1.16,1.1595,1.1528,1.1497,1.1451,1.0468,0.9296,0.8196,0.9478,1.0071,1.0117,1.1084,1.1685,1.1965,1.1965,1.1965,1.1831,1.0563,0.9345,0.8459,0.93,0.9611,0.9744,1.0573,1.0836,1.0924,1.1231,1.1324,1.1412,1.1718,1.2415,1.3028,1.3028,1.37,1.4329,1.4329,1.4329,1.4329,1.4329,1.4329,1.4329,1.4329,1.4329,1.4329,1.4329,1.4329,1.4329,1.4329,1.4329,1.4269,1.4108,1.3339,1.2153,1.05,0.8416,0.7204,0.7204,0.72,0.7223,0.7223,0.7223,0.7223,0.7223,0.7223,0.7223,0.7223,0.7377,0.7434,0.7434,0.7546,0.76,0.76,0.76,0.76,0.0,0.0,0.3719,0.3868,0.4926,0.5933,0.5999,0.8007,0.9891,0.9948,1.0974,1.1853,1.1853,1.2958,1.383,1.383,1.4902,1.5683,1.573,1.573,1.5289,1.4106,1.2764,1.1458,0.0,0.9948,0.941,0.8088,0.9217,0.9361,0.8088,1.0386,1.1214,1.0038,1.1209,1.1838,1.1876,1.1876,1.1876,1.1876,1.1597,1.1492,1.1482,1.1328,1.0588,0.952,1.0854,1.1456,1.1451,1.1497,1.2148,1.3166,1.3166,1.3166,1.3121,1.3103,1.2359,1.1385,1.139,1.1436,1.1436,1.1481,1.1481,1.1664,1.2774,1.3097,1.3375,1.4527,1.4892,1.4937,1.4937,1.4937,1.4981,1.4981,1.4981,1.4981,1.4981,1.4981,1.4981,1.4981,1.4981,1.4981,1.4981,1.4981,1.4981,1.4981,1.4981,1.4774,1.4162,1.212,1.0644,1.06,0.869,0.7409,0.7409,0.7502,0.7587,0.7587,0.7587,0.7587,0.7587,0.7587,0.7587,0.7587,0.759,0.7594,0.7594,0.7597,0.76,0.76,0.76,0.76,0.0,0.0,0.5284,0.5308,0.6985,0.8641,0.8647,0.9985,1.1225,1.1024,1.1998,1.2911,1.2911,1.4008,1.4929,1.5114,1.5534,1.5784,1.5784,1.5045,1.4297,1.3637,1.1849,0.0,0.0,0.0,0.0,0.8038,0.9266,0.9805,0.9361,1.097,1.1702,1.1263,1.2522,1.3247,1.3247,1.4076,1.4076,1.3247,1.3157,1.264,1.1776,1.2659,1.2337,1.1192,1.2521,1.3095,1.3142,1.4002,1.4578,1.4918,1.4918,1.4918,1.4918,1.4918,1.4671,1.4188,1.3049,1.2062,1.1507,1.2239,1.1914,1.1456,1.2694,1.3069,1.3341,1.4636,1.5008,1.5008,1.5008,1.5008,1.5008,1.5008,1.5008,1.5008,1.5008,1.5008,1.5008,1.5008,1.5008,1.5008,1.5008,1.5008,1.5008,1.5008,1.5008,1.4934,1.474,1.2589,1.1055,1.1055,0.895,0.7522,0.7522,0.757,0.76,0.76,0.6785,0.6261,0.6261,0.5407,0.4933,0.4933,0.5047,0.508,0.508,0.5192,0.5221,0.5221,0.5221,0.5221,0.0,0.5675,0.7121,0.7171,0.8879,1.0519,1.0519,1.1594,1.2555,1.2262,1.3205,1.4108,1.4108,1.4823,1.5491,1.5785,1.5784,1.5784,1.5784,1.4704,1.3814,1.3596,1.1854,0.0,0.0,0.0,0.0,0.941,1.019,1.0681,1.0681,1.2334,1.306,1.2619,1.3878,1.4561,1.4561,1.5391,1.5146,1.3926,1.3926,1.3199,1.195,1.3295,1.344,1.2668,1.4028,1.4561,1.4657,1.5439,1.5784,1.5784,1.5784,1.5784,1.5784,1.5784,1.5486,1.4946,1.3835,1.2921,1.2264,1.2497,1.203,1.1557,1.2357,1.2962,1.3524,1.4373,1.4943,1.5277,1.5277,1.5277,1.5277,1.5277,1.5277,1.5277,1.5277,1.5277,1.5277,1.5277,1.5277,1.5277,1.5277,1.5277,1.5277,1.5277,1.5277,1.5054,1.4385,1.2518,1.1099,1.0639,0.8851,0.7675,0.7675,0.7726,0.7561,0.7078,0.62,0.5519,0.5032,0.4212,0.3729,0.3729,0.3824,0.3849,0.3849,0.3944,0.4016,0.4016,0.4016,0.4016,0.5769,0.7503,0.9257,0.9347,1.0496,1.1576,1.1576,1.2797,1.3856,1.3549,1.4455,1.5378,0.0,0.0,1.5491,1.5785,1.5784,1.5784,1.5784,1.4704,1.3878,0.0,0.0,0.0,0.0,0.0,0.0,1.2091,0.0,1.1994,1.1994,1.4418,1.5242,1.4022,1.5146,1.5784,1.5784,1.573,1.5099,1.3926,1.3926,1.3247,1.2042,1.3397,1.4022,1.407,1.5289,1.5784,1.5784,1.5784,1.5784,1.5784,1.5784,1.5778,1.5683,1.5683,1.4902,1.3776,1.3728,1.368,1.3488,1.2237,1.1755,1.1702,1.1799,1.2668,1.3728,1.3872,1.4752,1.573,1.5778,1.5784,1.5784,1.5784,1.5784,1.5784,1.5784,1.5784,1.5784,1.5784,1.5784,1.5784,1.5784,1.5784,1.5784,1.5784,1.5784,1.5143,1.3346,1.2094,1.0852,0.9558,0.8446,0.7824,0.7824,0.7855,0.7335,0.6079,0.5879,0.5222,0.3966,0.3815,0.3815,0.3815,0.3815,0.3815,0.3815,0.3815,0.3815,0.3815,0.3815,0.3815,0.9074,0.9955,1.0603,1.0615,1.1635,1.2602,1.2602,1.3726,1.4631,1.4301,1.4686,1.5122,0.0,0.0,0.0,1.5785,1.5784,0.0,1.5784,1.4704,0.0,0.0,0.0,1.1896,1.1896,1.1896,0.0,0.0,1.3926,1.3392,1.3392,1.4902,1.5635,1.5337,1.5635,1.5784,1.5784,1.4854,1.422,1.3926,1.3926,1.3728,1.344,1.4704,1.5343,1.5337,1.5683,1.5784,1.5784,1.5784,1.5784,1.5784,1.5784,1.5242,1.4364,1.4364,1.3542,1.228,1.1307,1.097,1.0921,1.0583,0.9801,0.9167,1.0194,1.0725,1.1404,1.3343,1.4118,1.4603,1.5534,1.5784,1.5784,1.5784,1.5784,1.5784,1.5784,1.5784,1.5784,1.5784,1.5784,1.5784,1.5784,1.5784,1.5784,1.5784,1.5784,1.563,1.5143,1.3115,1.1634,1.1245,0.9266,0.7931,0.7931,0.7065,0.6379,0.6029,0.4121,0.2865,0.2514,0.1561,0.1008,0.1008,0.1008,0.1008,0.1008,0.1008,0.1008,0.1008,0.1008,0.1008,1.0413,1.1095,1.1643,1.1643,1.2628,1.3665,1.3665,1.4359,1.4743,1.3943,1.4433,0.0,0.0,0.0,0.0,0.0,0.0,0.0,1.5784,1.4704,1.383,0.0,1.3108,0.0,1.3547,1.3596,1.4226,0.0,1.4609,1.4118,1.4704,1.5391,1.5784,1.5784,1.5784,1.5784,1.5784,1.5099,1.4752,1.4752,1.4752,1.4752,1.4752,1.5486,1.5784,1.5784,0.0,1.5486,1.4949,1.4949,1.4949,1.4949,1.4949,1.4507,1.3926,1.3926,1.2716,1.0974,1.0243,0.9608,0.9118,0.9118,0.8627,0.8137,0.8874,0.9509,1.0435,1.2474,1.3445,1.4166,1.5486,1.5784,1.5784,1.5784,1.5784,1.5784,1.5784,1.5784,1.5784,1.5784,1.5784,1.5784,1.5784,1.5784,1.5784,1.5784,1.5784,1.5581,1.5045,1.3156,1.1707,1.1116,0.9213,0.7736,0.7182,0.6431,0.5477,0.4321,0.2816,0.1712,0.1159,0.0404,0.0,0.0,0.0,0.0,0.0,0.0,0.0,0.0,0.0,0.0,1.0984,1.1895,1.2705,1.2583,1.3593,1.4579,1.4282,1.443,1.4275,1.3065,0.0,0.0,1.3628,0.0,1.5538,1.5744,0.0,1.5784,1.5784,1.4854,1.4507,1.5439,1.4704,1.4513,1.5439,1.5683,1.5784,1.5784,1.48,1.4609,1.573,1.5784,1.5784,1.5784,1.5784,1.5784,1.5784,1.5784,1.5784,1.5784,1.5784,1.5784,1.5784,1.5784,1.573,1.554,0.0,0.0,1.3632,1.3632,1.3632,1.3632,1.3632,1.3536,1.3392,1.3392,1.1838,0.9756,0.9756,0.897,0.7988,0.7988,0.7988,0.7988,0.7988,0.8825,1.0047,1.1512,1.2721,1.3974,1.5439,1.5784,1.5784,1.5784,1.5784,1.5784,1.5784,1.5784,1.5784,1.5784,1.5784,1.5784,1.5784,1.5784,1.5784,1.5784,1.5683,1.5146,1.4022,1.2716,1.1414,1.0145,0.8825,0.7434,0.6129,0.5827,0.4672,0.2163,0.1812,0.1209,0.0051,0.0,0.0,0.0,0.0,0.0,0.0,0.0,0.0,0.0,0.0,0.0,1.3203,1.4294,1.4907,1.4019,1.4643,1.4992,1.3125,1.274,0.0,0.0,0.0,1.3835,1.4806,1.5418,0.0,1.5771,0.0,0.0,0.0,0.0,1.5146,0.0,0.0,0.0,0.0,0.0,0.0,0.0,0.0,1.5581,1.5778,1.5784,1.5784,1.5784,1.5784,1.5784,1.5784,1.5784,1.5784,1.5784,1.5784,1.5784,1.5784,1.5784,1.5242,1.4214,1.4214,0.0,1.2237,1.2237,1.2237,1.2237,1.2237,1.1604,1.0681,1.0681,0.9702,0.8333,0.8333,0.8187,0.7988,0.7988,0.7988,0.7988,0.7988,0.8187,0.8825,1.1214,1.2091,1.2818,1.5194,1.5784,1.5784,1.5784,1.5784,1.5784,1.5784,1.5784,1.5784,1.5784,1.5784,1.5784,1.5784,1.5784,1.5784,1.5784,1.4902,1.4166,1.3926,1.2716,1.1414,1.0145,0.8825,0.7434,0.6129,0.497,0.3667,0.2113,0.0958,0.0252,0.0,0.0,0.0,0.0,0.0,0.0,0.0,0.0,0.0,0.0,0.0,0.0,1.4754,1.5711,1.6281,1.5179,1.5338,1.5108,1.2832,0.0,0.0,0.0,0.0,1.3435,1.4116,0.0,0.0,0.0,0.0,0.0,0.0,0.0,0.0,0.0,0.0,0.0,0.0,0.0,0.0,0.0,0.0,1.5784,1.5784,1.5784,1.5784,1.5784,1.5784,1.5784,1.5784,1.5784,1.5784,1.5778,1.5146,1.48,1.4806,1.4082,1.3445,1.2861,1.2861,0.0,1.0925,1.0925,1.0925,1.0925,1.0925,1.0534,0.9998,0.9998,0.9167,0.7988,0.7988,0.7988,0.7988,0.7988,0.7988,0.7988,0.7988,0.7988,0.8528,1.1165,1.1896,1.2479,1.5099,1.5784,1.5784,1.5784,1.5784,1.5784,1.5784,1.5784,1.5784,1.5784,1.5784,1.5784,1.5784,1.5242,1.48,1.48,1.3686,1.2619,1.194,1.1312,1.0681,1.0047,0.8825,0.7182,0.5122,0.4368,0.3416,0.2063,0.0756,0.0303,0.1008,0.0353,0.0,0.0,0.0,0.0,0.0,0.0,0.0,0.0,0.0,0.0,1.5916,1.6846,1.7334,1.6026,1.5688,1.5004,1.2529,1.1943,0.0,0.0,0.0,0.0,1.3601,0.0,0.0,0.0,0.0,0.0,0.0,0.0,0.0,0.0,0.0,0.0,0.0,0.0,0.0,0.0,0.0,0.0,1.5778,1.5784,1.5784,1.5784,1.5784,1.5683,1.5391,1.5391,1.5242,1.4956,1.3926,1.3488,1.344,1.2382,1.175,1.1512,1.1512,0.0,0.0,0.9558,0.9558,0.9558,0.9558,0.9558,0.9558,0.9558,0.892,0.7988,0.7988,0.7988,0.7988,0.7988,0.7988,0.7988,0.7988,0.7988,0.8528,1.1165,1.1896,1.2479,1.5099,1.5784,1.573,1.5439,1.5391,1.5289,1.5051,1.5194,1.5391,1.5391,1.5635,1.573,1.5439,1.4561,1.3776,1.3488,1.2328,1.1116,1.0145,0.9752,0.9558,0.9558,0.8375,0.6578,0.4216,0.3715,0.3015,0.1661,0.0605,0.0454,0.1511,0.0555,0.0,0.0,0.0,0.0,0.0,0.0,0.0,0.0,0.0,0.0,1.6879,1.7989,1.835,1.6232,1.5644,1.4766,1.1493,0.0,0.0,0.0,1.201,1.3304,1.4924,0.0,0.0,0.0,0.0,0.0,0.0,0.0,0.0,0.0,0.0,0.0,0.0,0.0,0.0,0.0,0.0,0.0,1.573,1.5784,1.5784,1.5784,1.5784,1.5242,1.407,1.407,1.3445,1.2237,1.2139,1.2091,1.2091,1.1945,1.1268,1.0194,1.0194,0.0,0.0,0.8187,0.8187,0.8187,0.8187,0.8187,0.8187,0.8187,0.8088,0.7988,0.7988,0.7988,0.7988,0.7988,0.7988,0.7988,0.7988,0.7988,0.8528,1.1165,1.1896,1.2479,1.5099,1.5784,1.5486,1.4364,1.407,1.3734,1.2528,1.3204,1.407,1.407,1.4997,1.5439,1.4262,1.3974,1.3488,1.2285,1.0974,1.0145,0.9998,0.8924,0.8187,0.8187,0.698,0.5575,0.4116,0.2864,0.1611,0.0252,0.005,0.005,0.0202,0.005,0.0,0.0,0.0,0.0,0.0,0.0,0.0,0.0,0.0,0.0,1.8108,1.863,1.863,1.705,1.5651,1.3913,1.1241,0.0,0.0,1.0765,1.186,1.3276,1.487,1.5182,0.0,0.0,0.0,0.0,0.0,0.0,0.0,0.0,0.0,0.0,0.0,0.0,0.0,0.0,0.0,0.0,1.3324,1.4908,1.5784,1.5784,1.5051,1.4411,1.3926,1.3006,1.2316,1.1791,1.0891,1.0457,1.0405,0.9664,0.9052,0.8534,0.8534,0.0,0.0,0.7868,0.7851,0.7794,0.7921,0.7934,0.7913,0.7958,0.7988,0.7988,0.7988,0.7988,0.7988,0.7988,0.7988,0.7988,0.7988,0.7988,0.8382,1.0239,1.1317,1.2334,1.4172,1.4657,1.4507,1.4022,1.3295,1.2528,1.1999,1.2958,1.3926,1.3926,1.4316,1.4507,1.3974,1.2565,1.1361,1.0828,0.9657,0.8775,0.8775,0.8333,0.7988,0.7988,0.6783,0.5475,0.4116,0.2764,0.1762,0.126,0.0454,0.0353,0.1159,0.0404,0.0,0.0,0.0,0.0,0.0,0.0,0.0,0.0,0.0,0.0,1.913,1.9573,1.9307,1.7826,1.5778,1.3659,0.0,0.0,1.0697,1.1037,1.2215,1.353,1.4637,1.4948,1.5169,0.0,0.0,0.0,0.0,0.0,0.0,0.0,0.0,0.0,0.0,0.0,0.0,0.0,0.0,0.0,0.0,1.3749,1.4897,1.4556,1.3649,1.2981,1.2596,1.1581,1.0853,1.0481,0.9452,0.8928,0.8928,0.8013,0.76,0.76,0.0,0.0,0.0,0.7706,0.7689,0.7621,0.7828,0.7845,0.7767,0.7867,0.7924,0.7928,0.7975,0.7988,0.7988,0.7988,0.7988,0.7988,0.7988,0.7988,0.8283,0.9608,1.1214,1.2619,1.3151,1.3584,1.3728,1.2952,1.2037,1.1219,1.0823,1.2086,1.3295,1.3295,1.3632,1.3776,1.3392,1.1453,0.985,0.946,0.8276,0.7385,0.7385,0.7083,0.698,0.7385,0.6226,0.5022,0.4066,0.2764,0.1812,0.1411,0.0504,0.0404,0.136,0.0504,0.0,0.0,0.0,0.0,0.0,0.0,0.0,0.0,0.0,0.0,1.9916,2.0889,2.0638,1.8337,1.6119,1.4193,0.0,1.1641,1.0913,1.2066,1.3252,1.4182,1.4469,1.4763,1.5109,1.5351,0.0,0.0,0.0,0.0,0.0,0.0,0.0,0.0,0.0,0.0,0.0,0.0,0.0,0.0,0.0,1.2529,1.2711,1.1599,1.1553,1.0905,0.957,0.9524,0.8885,0.7647,0.7647,0.7597,0.7597,0.76,0.76,0.0,0.0,0.0,0.0,0.76,0.76,0.76,0.7604,0.7604,0.7617,0.7763,0.7814,0.7834,0.7938,0.7988,0.7988,0.7988,0.7988,0.7988,0.7988,0.7988,0.8283,0.9608,1.1891,1.359,1.2285,1.2915,1.3247,1.0681,1.0047,0.9657,0.8333,1.0096,1.1896,1.1896,1.3006,1.3494,1.2139,1.0828,0.9558,0.8233,0.6883,0.6029,0.6029,0.487,0.4568,0.5879,0.482,0.4016,0.4016,0.2764,0.1411,0.0101,0.0,0.0,0.0,0.0,0.0,0.0,0.0,0.0,0.0,0.0,0.0,0.0,0.0,0.0,2.0043,2.0145,1.9356,1.7834,1.5793,1.3665,1.1743,1.1521,1.1638,1.1209,1.2735,1.4175,1.4469,1.4436,1.4589,1.5284,0.0,0.0,0.0,0.0,0.0,0.0,0.0,0.0,0.0,0.0,0.0,0.0,0.0,0.0,0.0,0.9026,0.9944,1.1446,1.0624,0.9932,0.952,0.8532,0.7848,0.7441,0.7336,0.724,0.724,0.724,0.0,0.0,0.0,0.0,0.0,0.74,0.738,0.726,0.7516,0.7536,0.7461,0.7611,0.7665,0.7675,0.7723,0.774,0.7753,0.7851,0.7882,0.7902,0.7958,0.7988,0.8482,1.0681,1.2571,1.3776,1.3392,1.2909,1.2091,1.0386,0.9316,0.8775,0.9262,1.0681,1.2188,1.3102,1.2861,1.2382,1.1945,1.0096,0.8177,0.683,0.6279,0.5677,0.477,0.4268,0.4166,0.4568,0.4268,0.4016,0.4016,0.2764,0.1411,0.0101,0.0,0.0,0.0,0.0,0.0,0.0,0.0,0.0,0.0,0.0,0.0,0.0,0.0,0.0,0.0,1.9908,1.8932,1.7786,1.5531,1.3199,1.1766,1.1537,1.1595,1.1295,1.2778,1.4142,1.4322,1.4302,1.4462,1.5124,0.0,0.0,0.0,0.0,0.0,0.0,0.0,0.0,0.0,0.0,0.0,0.0,0.0,0.0,0.0,0.7953,0.853,0.9804,0.9042,0.8588,0.8588,0.773,0.7285,0.7282,0.7142,0.7095,0.7095,0.7095,0.0,0.0,0.0,0.0,0.0,0.7244,0.7227,0.7115,0.7353,0.737,0.7302,0.7458,0.7512,0.7522,0.758,0.76,0.7614,0.7702,0.7733,0.775,0.7845,0.7901,0.8333,0.9944,1.1404,1.2323,1.1789,1.1404,1.0877,0.9558,0.8627,0.8382,0.9706,1.1023,1.2139,1.2963,1.2479,1.175,1.1268,0.941,0.7537,0.6179,0.5575,0.477,0.3416,0.2815,0.2665,0.3215,0.3265,0.3265,0.3265,0.2464,0.1411,0.0101,0.0,0.0,0.0,0.0,0.0,0.0,0.0,0.0,0.0,0.0504,0.0756,0.0756,0.126,0.1511,0.0,1.9949,1.9244,1.7879,1.5227,1.2889,1.2587,1.1543,0.0,1.1938,1.3118,1.4004,1.4115,1.4322,1.4552,1.4847,0.0,0.0,0.0,0.0,0.0,0.0,0.0,0.0,0.0,0.0,0.0,0.0,0.0,0.0,0.0,0.8759,0.8277,0.7139,0.7095,0.7095,0.7095,0.7095,0.7095,0.7095,0.7095,0.7095,0.7095,0.7095,0.0,0.0,0.0,0.0,0.0,0.7095,0.7095,0.7095,0.7095,0.7095,0.7112,0.7302,0.7402,0.7373,0.7516,0.7567,0.757,0.758,0.759,0.76,0.76,0.7839,0.8107,0.8117,0.9099,0.9833,0.8478,0.9069,0.9706,0.8432,0.8137,0.8528,0.9948,1.1116,1.1945,1.2042,1.1896,1.1361,1.0092,0.8772,0.7385,0.5929,0.467,0.3364,0.2013,0.0756,0.0454,0.1712,0.1862,0.1862,0.1862,0.1963,0.1411,0.0101,0.0,0.0,0.0,0.0,0.0,0.0,0.0101,0.0151,0.0151,0.1511,0.2163,0.2163,0.3416,0.4016,1.7713,0.0,1.8463,1.559,1.4328,1.3058,0.0,1.0217,0.0,0.0,0.0,1.3089,1.4196,1.4295,0.0,0.0,0.0,0.0,0.0,0.0,0.0,0.0,0.0,0.0,0.0,0.0,0.0,0.0,0.0,0.0,0.0,0.7536,0.7401,0.7095,0.7095,0.7095,0.7095,0.7095,0.7095,0.7095,0.7095,0.7095,0.7095,0.7095,0.0,0.0,0.0,0.0,0.7095,0.7095,0.7095,0.7095,0.7095,0.7095,0.7098,0.7136,0.7149,0.7156,0.7189,0.7203,0.7223,0.7387,0.7506,0.76,0.76,0.8342,0.9171,0.9312,1.0306,1.101,0.9813,0.9756,0.9899,0.9608,0.9509,1.0141,1.2469,1.2425,1.2188,1.3247,1.1794,1.0038,0.8689,0.7363,0.5677,0.3317,0.2665,0.1963,0.0656,0.0202,0.0101,0.0454,0.0454,0.0454,0.0454,0.141,0.1411,0.0101,0.0,0.0,0.0,0.0,0.0,0.0,0.1008,0.1511,0.1511,0.2864,0.3516,0.3516,0.3865,0.4016,1.4996,1.5873,1.6345,1.4543,1.2924,1.125,0.9398,0.0,0.0,0.0,0.0,0.0,1.3517,0.0,0.0,0.0,0.0,0.0,0.0,0.0,0.0,0.0,0.0,0.0,0.0,0.0,0.0,0.0,0.0,0.0,0.0,0.7095,0.7095,0.7095,0.7095,0.7095,0.7095,0.7095,0.7095,0.7095,0.7031,0.7001,0.6997,0.6927,0.6896,0.0,0.0,0.0,0.7004,0.7068,0.7095,0.7095,0.7095,0.7095,0.7095,0.7095,0.7095,0.7095,0.7095,0.7095,0.7109,0.7238,0.7322,0.7478,0.8022,0.8692,0.9282,0.9511,0.9742,0.9879,0.9793,0.9449,0.9217,0.9854,0.9509,0.9801,1.2425,1.1945,1.1214,1.1989,1.0467,0.8643,0.7307,0.5967,0.437,0.2314,0.2013,0.1511,0.0151,0.0,0.0,0.0,0.0,0.0,0.0,0.0656,0.0756,0.0051,0.0,0.0,0.0,0.0,0.0,0.0,0.0706,0.136,0.2013,0.3366,0.4316,0.492,0.5572,0.5822,1.2308,1.2756,1.3436,1.3392,1.1227,0.9058,0.0,0.0,0.0,0.0,0.0,0.0,0.0,0.0,0.0,0.0,0.0,0.0,0.0,0.0,0.0,0.0,0.0,0.0,0.0,0.0,0.0,0.0,0.0,0.0,0.0,0.7065,0.7055,0.7031,0.7031,0.7031,0.7031,0.7051,0.7065,0.7061,0.692,0.6852,0.6849,0.6759,0.6702,0.6709,0.0,0.0,0.6862,0.7004,0.7065,0.7065,0.7088,0.7095,0.7095,0.7095,0.7095,0.7095,0.7095,0.7095,0.7095,0.7095,0.7095,0.7316,0.854,0.8759,0.8733,0.9353,0.8808,0.8209,0.9044,0.8604,0.8333,0.9706,0.9118,0.897,1.1361,1.0925,0.9948,0.9747,0.8594,0.7205,0.5672,0.447,0.3215,0.1913,0.1711,0.126,0.0151,0.0,0.0,0.0,0.0,0.0,0.0,0.0,0.0,0.0,0.0,0.0101,0.0303,0.0101,0.0101,0.0303,0.0303,0.0958,0.2314,0.3667,0.497,0.6331,0.7484,0.7988,1.1007,1.0555,0.999,0.9786,0.9389,0.88,0.0,0.0,0.0,0.0,0.0,0.0,0.0,0.0,0.0,0.0,0.0,0.0,0.0,0.0,0.0,0.0,0.0,0.0,0.0,0.0,0.0,0.0,0.0,0.0,0.0,0.6916,0.6859,0.6773,0.6766,0.6766,0.6766,0.6856,0.6916,0.6916,0.6807,0.6736,0.6736,0.6712,0.6702,0.6702,0.0,0.6736,0.6749,0.6856,0.6916,0.693,0.7048,0.7095,0.7095,0.7095,0.7095,0.7095,0.7095,0.7095,0.7095,0.7095,0.7095,0.7316,0.854,0.8193,0.7804,0.9818,0.975,0.891,0.8254,0.8021,0.8333,0.9706,0.985,1.0096,1.1556,1.0925,0.9645,0.8541,0.7211,0.552,0.3016,0.2465,0.1862,0.0504,0.0303,0.0252,0.0051,0.0,0.0,0.0,0.0,0.0,0.0,0.0,0.0,0.0,0.0,0.0504,0.1662,0.0605,0.0555,0.1661,0.1711,0.2363,0.3715,0.5022,0.6379,0.7686,0.7889,0.7988,0.9631,0.9058,0.8324,0.8129,0.8253,0.8236,0.0,0.0,0.0,0.0,0.0,0.0,0.0,0.0,0.0,0.0,0.0,0.0,0.0,0.0,0.0,0.0,0.0,0.0,0.0,0.0,0.0,0.0,0.0,0.0,0.0,0.0,0.6858,0.6705,0.6702,0.6702,0.6702,0.6688,0.6722,0.6803,0.6651,0.6576,0.6573,0.6498,0.6504,0.6508,0.0,0.6576,0.659,0.6742,0.6854,0.6893,0.6957,0.7028,0.7095,0.7095,0.7095,0.7095,0.7095,0.7095,0.7095,0.7095,0.7095,0.7445,0.9274,0.9013,0.8404,1.0135,0.9478,0.8328,0.8538,0.8231,0.8227,0.9682,0.946,0.9266,1.0583,0.9296,0.7664,0.7062,0.5266,0.3468,0.2213,0.141,0.0706,0.0101,0.0,0.0,0.0,0.0,0.0,0.0,0.0,0.0,0.0,0.0,0.0,0.0,0.0,0.0252,0.0907,0.0303,0.0303,0.0907,0.0907,0.1561,0.2914,0.4268,0.5622,0.6933,0.7686,0.7988,0.83,0.793,0.7482,0.0,0.0,0.0,0.0,0.0,0.0,0.0,0.0,0.0,0.0,0.0,0.0,0.0,0.0,0.0,0.0,0.0,0.0,0.0,0.0,0.0,0.0,0.0,0.0,0.0,0.0,0.0,0.0,0.0,0.6753,0.6603,0.6597,0.6597,0.6597,0.6521,0.6538,0.6647,0.6535,0.6463,0.646,0.6351,0.63,0.6306,0.6416,0.6463,0.6474,0.6583,0.6715,0.6827,0.6859,0.697,0.7095,0.7095,0.7095,0.7095,0.7095,0.7095,0.7095,0.7095,0.7095,0.7489,0.9575,0.9405,0.8715,0.9879,0.881,0.7577,0.8594,0.8302,0.8028,0.9162,0.8664,0.8189,0.9245,0.7641,0.5859,0.5586,0.3632,0.1891,0.1599,0.0702,0.0,0.0,0.0,0.0,0.0,0.0,0.0,0.0,0.0,0.0,0.0,0.0,0.0,0.0,0.0,0.0151,0.0454,0.0151,0.0151,0.0454,0.0151,0.0807,0.2464,0.3165,0.452,0.6481,0.7185,0.7686,0.7097,0.719,0.7193,0.7516,0.0,0.0,0.0,0.0,0.0,0.0,0.0,0.0,0.0,0.0,0.0,0.0,0.0,0.0,0.0,0.0,0.0,0.0,0.0,0.0,0.0,0.0,0.0,0.0,0.0,0.0,0.0,0.0,0.0,0.6337,0.633,0.633,0.633,0.632,0.6385,0.6525,0.6381,0.6317,0.6313,0.6306,0.63,0.63,0.631,0.6317,0.6327,0.647,0.6535,0.6573,0.6817,0.697,0.7095,0.7095,0.7095,0.7095,0.7095,0.7095,0.7095,0.7095,0.7095,0.736,0.8627,0.8189,0.7489,0.8671,0.8113,0.7193,0.7482,0.7591,0.7617,0.7769,0.7678,0.7668,0.7894,0.6846,0.5506,0.4343,0.2996,0.1586,0.0343,0.0049,0.0,0.0,0.0,0.0,0.0,0.0,0.0,0.0,0.0,0.0,0.0,0.0,0.0,0.0,0.0,0.0555,0.1812,0.0656,0.0605,0.1812,0.0656,0.126,0.3865,0.2715,0.4119,0.7839,0.6681,0.6833,0.6678,0.6997,0.7288,0.7309,0.0,0.0,0.0,0.0,0.0,0.0,0.0,0.0,0.0,0.0,0.0,0.0,0.0,0.0,0.0,0.0,0.0,0.0,0.0,0.0,0.0,0.0,0.0,0.0,0.0,0.0,0.0,0.0,0.0,0.6306,0.63,0.63,0.63,0.63,0.6327,0.6378,0.6327,0.63,0.63,0.63,0.63,0.63,0.63,0.63,0.6303,0.6358,0.6433,0.6532,0.6705,0.6878,0.6964,0.6964,0.7021,0.7095,0.7095,0.7095,0.7095,0.7095,0.7095,0.7316,0.854,0.8061,0.7356,0.854,0.8013,0.7132,0.7329,0.746,0.7482,0.7577,0.76,0.7614,0.7668,0.6055,0.4423,0.3979,0.2198,0.0573,0.0096,0.0,0.0,0.0,0.0,0.0,0.0,0.0,0.0,0.0,0.0,0.0,0.0,0.0,0.0,0.0,0.0,0.0252,0.0756,0.0252,0.0252,0.0756,0.0252,0.0504,0.1511,0.2665,0.4017,0.552,0.6678,0.7537,0.6603,0.6949,0.7295,0.0,0.0,0.0,0.0,0.0,0.0,0.0,0.0,0.0,0.0,0.0,0.0,0.0,0.0,0.0,0.0,0.0,0.0,0.0,0.0,0.0,0.0,0.0,0.0,0.0,0.0,0.0,0.0,0.0,0.0,0.0,0.63,0.63,0.63,0.63,0.63,0.63,0.63,0.63,0.63,0.63,0.63,0.63,0.63,0.63,0.63,0.63,0.6381,0.6521,0.6586,0.6753,0.6886,0.6886,0.6974,0.7095,0.7095,0.7095,0.7095,0.7095,0.7095,0.7272,0.8101,0.7753,0.7272,0.8105,0.7753,0.7122,0.7272,0.7299,0.7326,0.7431,0.7455,0.7468,0.7516,0.5518,0.3733,0.3804,0.1735,0.0,0.0,0.0,0.0,0.0,0.0,0.0,0.0,0.0,0.0,0.0,0.0,0.0,0.0,0.0,0.0,0.0,0.0,0.0,0.0,0.0,0.0,0.0,0.0,0.0202,0.0656,0.2063,0.3366,0.467,0.6074,0.7182,0.6839,0.6987,0.0,0.0,0.0,0.0,0.0,0.0,0.0,0.0,0.0,0.0,0.0,0.0,0.0,0.0,0.0,0.0,0.0,0.0,0.0,0.0,0.0,0.0,0.0,0.0,0.0,0.0,0.0,0.0,0.0,0.0,0.0,0.0,0.63,0.6296,0.6296,0.6296,0.6296,0.6296,0.6296,0.6296,0.63,0.63,0.63,0.63,0.63,0.63,0.63,0.63,0.6381,0.6511,0.6511,0.6658,0.6883,0.6883,0.697,0.7092,0.7092,0.7092,0.7092,0.7092,0.7092,0.7095,0.7095,0.7095,0.7095,0.7095,0.7095,0.7095,0.7095,0.7095,0.7095,0.7095,0.7095,0.7139,0.7336,0.5388,0.3638,0.376,0.1726,0.0,0.0,0.0,0.0,0.0,0.0,0.0,0.0,0.0,0.0,0.0,0.0,0.0,0.0,0.0,0.0,0.0,0.0,0.0,0.0,0.0,0.0,0.0,0.0,0.0656,0.1962,0.0656,0.2064,0.5929,0.4618,0.547,0.6597,0.0,0.0,0.0,0.0,0.0,0.0,0.0,0.0,0.0,0.0,0.0,0.0,0.0,0.0,0.0,0.0,0.0,0.0,0.0,0.0,0.0,0.0,0.0,0.0,0.0,0.0,0.0,0.0,0.0,0.0,0.0,0.0,0.0,0.6242,0.6194,0.5939,0.6044,0.6044,0.5939,0.6047,0.6156,0.63,0.63,0.63,0.63,0.63,0.63,0.63,0.63,0.6323,0.6364,0.6364,0.648,0.6607,0.6607,0.6702,0.6831,0.6831,0.6831,0.6831,0.6831,0.6862,0.695,0.695,0.7018,0.7095,0.7095,0.7095,0.7095,0.7095,0.7095,0.7095,0.7095,0.7095,0.7109,0.7156,0.5287,0.3621,0.3645,0.1664,0.0,0.0,0.0,0.0,0.0,0.0,0.0,0.0,0.0,0.0,0.0,0.0,0.0,0.0,0.0,0.0,0.0,0.0,0.0,0.0,0.0,0.0,0.0,0.0,0.0202,0.0605,0.1159,0.2515,0.4618,0.5172,0.6329,0.6995,0.0,0.0,0.0,0.0,0.0,0.0,0.0,0.0,0.0,0.0,0.0,0.0,0.0,0.0,0.0,0.0,0.0,0.0,0.0,0.0,0.0,0.0,0.0,0.0,0.0,0.0,0.0,0.0,0.0,0.0,0.0,0.0,0.5942,0.603,0.5989,0.5803,0.5891,0.5891,0.5803,0.5895,0.602,0.6173,0.6272,0.63,0.63,0.63,0.63,0.63,0.63,0.63,0.63,0.63,0.6385,0.6511,0.6511,0.6569,0.6709,0.677,0.6753,0.6712,0.677,0.6854,0.6886,0.6886,0.6984,0.7095,0.7095,0.7095,0.7095,0.7095,0.7095,0.7095,0.7095,0.7095,0.6962,0.6517,0.4952,0.3436,0.2992,0.1344,0.0,0.0,0.0,0.0,0.0,0.0,0.0,0.0,0.0,0.0,0.0,0.0,0.0,0.0,0.0,0.0,0.0,0.0,0.0,0.0,0.0,0.0,0.0,0.0,0.0,0.0,0.136,0.2665,0.4016,0.5375,0.6734,0.0,0.0,0.0,0.0,0.0,0.0,0.0,0.0,0.0,0.0,0.0,0.0,0.0,0.0,0.0,0.0,0.0,0.0,0.0,0.0,0.0,0.0,0.0,0.0,0.0,0.0,0.0,0.0,0.0,0.0,0.0,0.0,0.5939,0.5786,0.5793,0.5789,0.5762,0.5776,0.5776,0.5762,0.5776,0.5854,0.5956,0.6162,0.6286,0.63,0.63,0.63,0.63,0.63,0.63,0.63,0.63,0.6378,0.6494,0.6494,0.6539,0.6681,0.682,0.6776,0.6681,0.6824,0.6832,0.6849,0.6862,0.6964,0.7082,0.7092,0.7095,0.7095,0.7095,0.7095,0.7095,0.7095,0.7095,0.6786,0.5625,0.4463,0.326,0.2013,0.0807,0.0,0.0,0.0,0.0,0.0,0.0,0.0,0.0,0.0,0.0,0.0,0.0,0.0,0.0,0.0,0.0,0.0,0.0,0.0,0.0,0.0,0.0,0.0,0.0,0.005,0.0202,0.141,0.2765,0.4216,0.5425,0.6734,0.0,0.0,0.0,0.0,0.0,0.0,0.0,0.0,0.0,0.0,0.0,0.0,0.0,0.0,0.0,0.0,0.0,0.0,0.0,0.0,0.0,0.0,0.0,0.0,0.0,0.0,0.0,0.0,0.0,0.0,0.0,0.0,0.5783,0.564,0.5742,0.5691,0.5491,0.5576,0.5576,0.0,0.5579,0.5654,0.5694,0.5959,0.6146,0.63,0.63,0.63,0.63,0.63,0.63,0.63,0.63,0.632,0.6344,0.6344,0.6368,0.6399,0.6433,0.6422,0.6402,0.6433,0.6518,0.6593,0.6712,0.6854,0.6953,0.7065,0.7095,0.7095,0.7095,0.7095,0.7095,0.7095,0.7095,0.6786,0.5625,0.4463,0.326,0.2013,0.0807,0.0,0.0,0.0,0.0,0.0,0.0,0.0,0.0,0.0,0.0,0.0,0.0,0.0,0.0,0.0,0.0,0.0,0.0,0.0,0.0,0.0,0.0,0.0,0.0,0.0504,0.1561,0.1862,0.3217,0.5575,0.5879,0.6734,0.0,0.0,0.0,0.0,0.0,0.0,0.0,0.0,0.0,0.0,0.0,0.0,0.0,0.0,0.0,0.0,0.0,0.0,0.0,0.0,0.0,0.0,0.0,0.0,0.0,0.0,0.0,0.0,0.0,0.0,0.0,0.5742,0.5633,0.5518,0.5586,0.5549,0.5395,0.5474,0.5474,0.5395,0.5477,0.5552,0.5599,0.5895,0.6074,0.6156,0.6269,0.63,0.63,0.63,0.63,0.63,0.63,0.63,0.63,0.63,0.63,0.631,0.6378,0.6358,0.631,0.6378,0.6453,0.6525,0.6566,0.6749,0.6886,0.6886,0.6987,0.7082,0.7014,0.7045,0.7095,0.7095,0.6694,0.598,0.4776,0.3573,0.237,0.1165,0.0449,0.0,0.0,0.0,0.0,0.0,0.0,0.0,0.0,0.0,0.0,0.0,0.0,0.0,0.0,0.0,0.0,0.0,0.0,0.0,0.0,0.0,0.0,0.0,0.0,0.0656,0.2013,0.2665,0.4019,0.6029,0.6681,0.7335,0.0,0.0,0.0,0.0,0.0,0.0,0.0,0.0,0.0,0.0,0.0,0.0,0.0,0.0,0.0,0.0,0.0,0.0,0.0,0.0,0.0,0.0,0.0,0.0,0.0,0.0,0.0,0.0,0.0,0.0,0.5596,0.5566,0.5528,0.5399,0.5395,0.5395,0.5395,0.5395,0.5395,0.5395,0.5395,0.5463,0.5559,0.583,0.5929,0.5959,0.6125,0.6221,0.6221,0.6248,0.6259,0.6262,0.6289,0.63,0.63,0.63,0.63,0.6317,0.6433,0.6399,0.632,0.6436,0.6474,0.6484,0.6538,0.6688,0.6825,0.677,0.6915,0.7034,0.6916,0.6953,0.7028,0.7055,0.6036,0.48,0.379,0.2637,0.1433,0.0225,0.0,0.0,0.0,0.0,0.0,0.0,0.0,0.0,0.0,0.018,0.0225,0.0,0.018,0.0226,0.0,0.0,0.0,0.0,0.0,0.0,0.0,0.0,0.0,0.0,0.0252,0.1008,0.2364,0.3667,0.502,0.6381,0.7484,0.7988,0.0,0.0,0.0,0.0,0.0,0.0,0.0,0.0,0.0,0.0,0.0,0.0,0.0,0.0,0.0,0.0,0.0,0.0,0.0,0.0,0.0,0.0,0.0,0.0,0.0,0.0,0.0,0.0,0.0,0.0,0.5593,0.5498,0.5416,0.5395,0.5395,0.5395,0.5395,0.5395,0.5395,0.5395,0.5395,0.5405,0.5433,0.5569,0.5715,0.5833,0.5854,0.5864,0.5874,0.6006,0.6023,0.6074,0.6248,0.63,0.63,0.63,0.63,0.6303,0.632,0.6317,0.6303,0.6323,0.6327,0.6375,0.6593,0.6698,0.6756,0.6825,0.6883,0.691,0.6889,0.6844,0.6793,0.6883,0.5259,0.3669,0.36,0.2637,0.1433,0.0225,0.0,0.0,0.0,0.0,0.0,0.0,0.0,0.0,0.0,0.0897,0.1165,0.009,0.0942,0.1129,0.0092,0.0,0.0,0.0,0.0,0.0,0.0,0.0,0.0,0.0,0.1159,0.2413,0.3715,0.5072,0.6429,0.7739,0.7939,0.7988,0.0,0.0,0.0,0.0,0.0,0.0,0.0,0.0,0.0,0.0,0.0,0.0,0.0,0.0,0.0,0.0,0.0,0.0,0.0,0.0,0.0,0.0,0.0,0.0,0.0,0.0,0.0,0.0,0.0,0.5494,0.5494,0.5433,0.5395,0.5395,0.5395,0.5395,0.5395,0.5395,0.5395,0.5395,0.5395,0.5395,0.5395,0.5467,0.5576,0.5688,0.5766,0.58,0.5813,0.5929,0.5993,0.6006,0.6238,0.63,0.63,0.63,0.63,0.63,0.63,0.63,0.63,0.63,0.63,0.6323,0.6457,0.6508,0.6586,0.6654,0.6797,0.6866,0.6824,0.6871,0.6748,0.6051,0.4675,0.3343,0.2716,0.1642,0.0852,0.0986,0.1567,0.2013,0.2013,0.2013,0.2013,0.2013,0.2013,0.2013,0.2013,0.2458,0.2592,0.2057,0.2503,0.2333,0.1088,0.0999,0.0733,0.0047,0.0,0.0,0.0,0.0,0.0353,0.1109,0.1711,0.2665,0.4016,0.5322,0.6681,0.7988,0.7988,0.7988,0.0,0.0,0.0,0.0,0.0,0.0,0.0,0.0,0.0,0.0,0.0,0.0,0.0,0.0,0.0,0.0,0.0,0.0,0.0,0.0,0.0,0.0,0.0,0.0,0.0,0.0,0.0,0.0,0.0,0.5395,0.5395,0.5395,0.5395,0.5395,0.5395,0.5395,0.5395,0.5395,0.5395,0.5395,0.5395,0.5395,0.5395,0.5395,0.5457,0.5573,0.5644,0.5688,0.5701,0.5854,0.5882,0.5935,0.6129,0.6242,0.6245,0.6286,0.63,0.63,0.63,0.63,0.63,0.63,0.63,0.6306,0.634,0.6426,0.6521,0.6559,0.6695,0.6854,0.6776,0.6892,0.6668,0.5393,0.4299,0.3248,0.2037,0.1103,0.0807,0.2013,0.2992,0.3614,0.3614,0.3614,0.3614,0.3614,0.3614,0.3614,0.3614,0.3883,0.3927,0.3614,0.3881,0.3571,0.237,0.2236,0.1891,0.0961,0.061,0.0623,0.0973,0.0648,0.1159,0.2464,0.2865,0.3518,0.4518,0.5877,0.7033,0.7988,0.7988,0.7988,0.0,0.0,0.0,0.0,0.0,0.0,0.0,0.0,0.0,0.0,0.0,0.0,0.0,0.0,0.0,0.0,0.0,0.0,0.0,0.0,0.0,0.0,0.0,0.0,0.0,0.0,0.0,0.0,0.0,0.5395,0.5395,0.5395,0.5395,0.5395,0.5395,0.5395,0.5395,0.5395,0.5395,0.5395,0.5395,0.5395,0.5395,0.5395,0.5399,0.5405,0.5416,0.5419,0.5429,0.5549,0.5613,0.564,0.5928,0.6003,0.6023,0.6245,0.63,0.63,0.63,0.63,0.63,0.63,0.63,0.6323,0.646,0.6508,0.6542,0.6647,0.6702,0.6746,0.6839,0.682,0.6463,0.5355,0.4214,0.3118,0.2037,0.1764,0.2057,0.326,0.357,0.3614,0.3614,0.3614,0.3614,0.3614,0.3614,0.3614,0.3614,0.4596,0.4865,0.3703,0.4641,0.4821,0.3614,0.3525,0.3482,0.3396,0.2325,0.2284,0.3566,0.2515,0.2514,0.3865,0.5122,0.5827,0.5877,0.7235,0.7939,0.7988,0.7988,0.7988,0.0,0.0,0.0,0.0,0.0,0.0,0.0,0.0,0.0,0.0,0.0,0.0,0.0,0.0,0.0,0.0,0.0,0.0,0.0,0.0,0.0,0.0,0.0,0.0,0.0,0.0,0.0,0.0,0.0,0.0,0.5395,0.5395,0.5395,0.5395,0.5395,0.5395,0.5395,0.5395,0.5395,0.5395,0.5395,0.5395,0.5395,0.5395,0.5395,0.5395,0.5395,0.5395,0.5405,0.5562,0.5589,0.562,0.5878,0.5993,0.6013,0.6242,0.63,0.63,0.63,0.63,0.63,0.63,0.63,0.631,0.6361,0.6439,0.6525,0.6539,0.6624,0.6712,0.6766,0.6814,0.6375,0.4576,0.3229,0.247,0.2859,0.2949,0.3304,0.4508,0.5354,0.5844,0.5844,0.5844,0.5844,0.5844,0.5844,0.5844,0.5844,0.6201,0.6337,0.5888,0.6248,0.6024,0.4865,0.4776,0.4419,0.3659,0.3211,0.3186,0.3794,0.3409,0.3823,0.5272,0.5777,0.5979,0.5979,0.7335,0.7988,0.7988,0.7988,0.7988,0.0,0.0,0.0,0.0,0.0,0.0,0.0,0.0,0.0,0.0,0.0,0.0,0.0,0.0,0.0,0.0,0.0,0.0,0.0,0.0,0.0,0.0,0.0,0.0,0.0,0.0,0.0,0.0,0.0,0.0,0.5395,0.5395,0.5395,0.5395,0.5395,0.5395,0.5395,0.5395,0.5395,0.5395,0.5395,0.5395,0.5395,0.5395,0.5395,0.5395,0.5395,0.5395,0.5402,0.5504,0.5545,0.5576,0.5837,0.5915,0.5976,0.6224,0.63,0.63,0.63,0.63,0.63,0.63,0.63,0.63,0.63,0.6364,0.645,0.6497,0.6583,0.6712,0.6763,0.6293,0.5419,0.393,0.2699,0.2257,0.3845,0.42,0.4552,0.5758,0.6561,0.7095,0.7095,0.7095,0.7095,0.7095,0.7095,0.7095,0.7095,0.7095,0.7095,0.7095,0.7095,0.6786,0.6027,0.5983,0.5622,0.4816,0.4441,0.4489,0.5074,0.472,0.521,0.6628,0.6681,0.6681,0.6681,0.7587,0.7988,0.7988,0.7988,0.7988,0.0,0.0,0.0,0.0,0.0,0.0,0.0,0.0,0.0,0.0,0.0,0.0,0.0,0.0,0.0,0.0,0.0,0.0,0.0,0.0,0.0,0.0,0.0,0.0,0.0,0.0,0.0,0.0,0.0,0.5395,0.5395,0.5395,0.5395,0.5395,0.5395,0.5395,0.5395,0.5395,0.5395,0.5395,0.5395,0.5395,0.5395,0.5395,0.5395,0.5395,0.5395,0.5395,0.5395,0.5395,0.5395,0.5423,0.5681,0.5796,0.5837,0.618,0.6296,0.63,0.63,0.63,0.63,0.63,0.63,0.63,0.63,0.6303,0.6334,0.6467,0.658,0.6736,0.6803,0.5241,0.3617,0.3597,0.2726,0.2484,0.4891,0.5403,0.5761,0.6874,0.7095,0.7095,0.7095,0.7095,0.7095,0.7095,0.7095,0.7095,0.7095,0.7095,0.7095,0.7095,0.7095,0.7095,0.7095,0.7095,0.7095,0.7095,0.6207,0.6255,0.755,0.6597,0.6678,0.7988,0.7988,0.7988,0.7988,0.7988,0.7988,0.7988,0.7988,0.7988,1.2111,0.0,0.0,0.0,0.0,0.0,0.0,0.0,0.0,0.0,0.0,0.0,0.0,0.0,0.0,0.0,0.0,0.0,0.0,0.0,0.0,0.0,0.0,0.0,0.0,0.0,0.0,0.0,0.5395,0.5395,0.5395,0.5395,0.5395,0.5395,0.5395,0.5395,0.5395,0.5395,0.5395,0.5395,0.5395,0.5395,0.5395,0.5395,0.5395,0.5395,0.5395,0.5395,0.5395,0.5395,0.5395,0.5416,0.5572,0.5711,0.5823,0.602,0.6166,0.63,0.63,0.63,0.63,0.63,0.63,0.63,0.63,0.6371,0.6439,0.6375,0.6505,0.6524,0.5803,0.4592,0.359,0.3611,0.3333,0.3546,0.5082,0.6027,0.6738,0.7051,0.7095,0.7095,0.7095,0.7095,0.7095,0.7095,0.7095,0.7095,0.7095,0.7095,0.7095,0.7095,0.7095,0.7095,0.7095,0.7095,0.7095,0.7095,0.6956,0.7105,0.7594,0.7388,0.7527,0.7988,0.7988,0.7988,0.7988,0.7988,0.7988,0.7988,0.7988,0.7988,0.0,0.0,0.0,0.0,0.0,0.0,0.0,0.0,0.0,0.0,0.0,0.0,0.0,0.0,0.0,0.0,0.0,0.0,0.0,0.0,0.0,0.0,0.0,0.0,0.0,0.0,0.0,0.5498,0.5433,0.5395,0.5395,0.5395,0.5395,0.5395,0.5395,0.5395,0.5395,0.5395,0.5395,0.5395,0.5395,0.5395,0.5395,0.5395,0.5395,0.5395,0.5395,0.5395,0.5395,0.5395,0.5395,0.5416,0.5596,0.5691,0.5745,0.6023,0.6142,0.6173,0.6276,0.63,0.63,0.63,0.63,0.63,0.63,0.6358,0.6405,0.6323,0.6474,0.6354,0.4772,0.4349,0.4241,0.3703,0.3972,0.4685,0.5847,0.665,0.7095,0.7095,0.7095,0.7095,0.7095,0.7095,0.7095,0.7095,0.7095,0.7095,0.7095,0.7095,0.7095,0.7095,0.7095,0.7095,0.7095,0.7095,0.7095,0.7095,0.7346,0.7506,0.7597,0.7797,0.7897,0.7988,0.7988,0.7988,0.7988,0.7988,0.7988,0.7988,0.7988,0.7988,0.0,0.0,0.0,0.0,0.0,0.0,1.1636,1.25,0.0,0.0,0.0,0.0,0.0,0.0,0.0,0.0,0.0,0.0,0.0,0.0,0.0,0.0,0.0,0.0,0.0,0.5793,0.5627,0.5593,0.5481,0.5395,0.5395,0.5395,0.5395,0.5395,0.5395,0.5395,0.5395,0.5395,0.5395,0.5395,0.5395,0.5395,0.5395,0.5395,0.5395,0.5395,0.5395,0.5395,0.5395,0.5395,0.5395,0.5423,0.565,0.5684,0.564,0.6095,0.6132,0.6013,0.6245,0.63,0.63,0.63,0.63,0.63,0.63,0.63,0.6303,0.632,0.6485,0.6187,0.4044,0.4441,0.5134,0.4061,0.4596,0.5714,0.6874,0.7095,0.7095,0.7095,0.7095,0.7095,0.7095,0.7095,0.7095,0.7095,0.7095,0.7095,0.7095,0.7095,0.7095,0.7095,0.7095,0.7095,0.7095,0.7095,0.7095,0.7095,0.7414,0.7584,0.76,0.7868,0.7971,0.7988,0.7988,0.7988,0.7988,0.7988,0.7988,0.7988,0.7988,0.7988,0.0,0.0,0.0,0.0,0.0,0.0,0.0,1.1366,0.0,0.0,0.0,0.0,0.0,0.0,0.0,0.0,0.0,0.0,0.0,0.0,0.0,0.0,0.0,0.0,0.0,0.5939,0.5844,0.5606,0.5481,0.5395,0.5395,0.5395,0.5395,0.5395,0.5395,0.5395,0.5395,0.5395,0.5395,0.5395,0.5395,0.5395,0.5395,0.5395,0.5395,0.5395,0.5395,0.5395,0.5395,0.5395,0.5395,0.5399,0.546,0.5539,0.5613,0.5817,0.5949,0.6013,0.6245,0.63,0.63,0.63,0.63,0.63,0.63,0.63,0.6323,0.6436,0.6563,0.6396,0.5072,0.5054,0.5359,0.509,0.5223,0.5714,0.6874,0.7095,0.7095,0.7095,0.7095,0.7095,0.7095,0.7095,0.7095,0.7095,0.7095,0.7095,0.7095,0.7095,0.7095,0.7095,0.7095,0.7095,0.7095,0.7095,0.7095,0.7095,0.7316,0.7472,0.7594,0.7767,0.7913,0.7988,0.7988,0.7988,0.7988,0.7988,0.7988,0.7988,0.7988,0.7988,0.0,0.0,0.0,0.7022,0.0,0.0,0.0,0.0,0.0,0.0,0.0,0.0,0.0,0.0,0.0,0.0,0.0,0.0,0.0,0.0,0.0,0.0,0.0,0.0,0.0,0.6115,0.5899,0.5711,0.5593,0.5511,0.5511,0.5436,0.5395,0.5395,0.5395,0.5395,0.5395,0.5395,0.5395,0.5395,0.5395,0.5395,0.5395,0.5395,0.5395,0.5395,0.5395,0.5395,0.5395,0.5395,0.5395,0.5402,0.5481,0.5511,0.5535,0.5722,0.585,0.5939,0.6091,0.6235,0.63,0.63,0.63,0.63,0.63,0.63,0.6313,0.6385,0.6529,0.6421,0.5305,0.5624,0.6115,0.5536,0.5849,0.6381,0.6962,0.7095,0.7095,0.7095,0.7095,0.7095,0.7095,0.7095,0.7095,0.7095,0.7095,0.7095,0.7095,0.7095,0.7095,0.7095,0.7095,0.7095,0.7095,0.7095,0.7095,0.7095,0.7285,0.7441,0.7594,0.7736,0.7882,0.7985,0.7988,0.7988,0.7988,0.7988,0.7988,0.7988,0.7988,0.7988,0.0,0.0,0.0,0.0,0.0,0.839,0.0,0.0,0.0,1.2744,0.0,0.0,0.0,0.0,0.0,0.0,0.0,0.0,0.0,0.0,0.0,0.0,0.0,0.0,0.0,0.6656,0.6194,0.5854,0.5688,0.5603,0.563,0.5521,0.544,0.544,0.5409,0.5395,0.5395,0.5395,0.5395,0.5395,0.5395,0.5395,0.5395,0.5395,0.5395,0.5395,0.5395,0.5395,0.5395,0.5395,0.5395,0.5405,0.5532,0.5504,0.5429,0.5691,0.58,0.5827,0.601,0.6156,0.63,0.63,0.63,0.63,0.63,0.63,0.63,0.63,0.6474,0.6491,0.5485,0.6184,0.6874,0.5938,0.6428,0.7095,0.7095,0.7095,0.7095,0.7095,0.7095,0.7095,0.7095,0.7095,0.7095,0.7095,0.7095,0.7095,0.7095,0.7095,0.7095,0.7095,0.7095,0.7095,0.7095,0.7095,0.7095,0.7095,0.7258,0.7411,0.7594,0.7763,0.7913,0.7988,0.8237,0.8237,0.7988,0.8237,0.8237,0.7988,0.7988,0.7988,0.0,0.0,0.0,0.0,0.7823,0.0,0.0,0.0,1.187,1.2017,0.0,0.0,0.0,0.0,0.0,0.0,0.0,0.0,0.0,0.0,0.0,0.0,0.0,0.0,0.0,0.0,0.7155,0.604,0.5745,0.5644,0.5772,0.564,0.5562,0.5562,0.5467,0.5395,0.5395,0.5395,0.5395,0.5395,0.5395,0.5395,0.5395,0.5395,0.5395,0.5395,0.5395,0.5395,0.5395,0.5395,0.5395,0.5395,0.5416,0.5409,0.5429,0.5691,0.58,0.5844,0.617,0.6286,0.63,0.63,0.63,0.63,0.63,0.63,0.63,0.63,0.6474,0.6657,0.6533,0.679,0.7051,0.6918,0.7007,0.7095,0.7095,0.7095,0.7095,0.7095,0.7095,0.7095,0.7095,0.7095,0.7095,0.7095,0.7095,0.7095,0.7095,0.7095,0.7095,0.7095,0.7095,0.7095,0.7095,0.7095,0.7095,0.7095,0.7112,0.7253,0.7587,0.7865,0.7971,0.7988,0.9167,0.9167,0.7988,0.9217,0.9167,0.7988,0.7988,0.7988,0.0,0.0,0.0,0.0,0.0,0.0,0.0,0.0,1.1209,0.0,0.0,0.0,0.0,0.0,0.0,0.0,0.0,0.0,0.0,0.0,0.0,0.0,0.0,0.0,0.0,0.0,0.0,0.0,0.5884,0.5776,0.5925,0.5715,0.5589,0.5589,0.5474,0.5395,0.5395,0.5395,0.5395,0.5395,0.5395,0.5395,0.5395,0.5395,0.5395,0.5395,0.5395,0.5395,0.5395,0.5395,0.5395,0.5395,0.5395,0.5395,0.5423,0.5599,0.5732,0.5833,0.6051,0.6186,0.63,0.63,0.63,0.63,0.63,0.63,0.6317,0.6399,0.6536,0.6722,0.681,0.6943,0.7095,0.7095,0.7095,0.7095,0.7095,0.7095,0.7095,0.7095,0.7095,0.7095,0.7095,0.7095,0.7095,0.7095,0.7095,0.7095,0.7095,0.7095,0.7095,0.7095,0.7095,0.7095,0.7095,0.7095,0.7095,0.7095,0.7264,0.8099,0.9667,0.9369,0.9509,1.0239,1.0828,1.0828,1.0239,1.0828,1.0828,1.0239,0.9509,0.9558,0.63,0.0,0.0,0.0,0.0,0.0,0.0,0.0,0.0,0.0,0.0,0.0,0.0,0.0,0.0,0.0,0.0,0.0,0.0,0.0,0.0,0.0,0.0,0.0,0.0,0.0,0.0,0.0,0.0,0.5884,0.6084,0.585,0.5691,0.565,0.5535,0.5436,0.5395,0.5395,0.5395,0.5395,0.5395,0.5395,0.5395,0.5395,0.5395,0.5395,0.5395,0.5395,0.5395,0.5395,0.5395,0.5395,0.5395,0.5395,0.5419,0.5579,0.5711,0.583,0.6023,0.6166,0.63,0.63,0.63,0.63,0.63,0.6327,0.6378,0.6484,0.6614,0.679,0.6859,0.6991,0.7095,0.7095,0.7095,0.7095,0.7095,0.7095,0.7095,0.7095,0.7095,0.7095,0.7095,0.7095,0.7095,0.7095,0.7095,0.7095,0.7095,0.7095,0.7095,0.7095,0.7095,0.7095,0.7095,0.7401,0.7705,0.8053,0.8425,0.9397,1.1237,1.0804,1.0974,1.1896,1.2285,1.2285,1.1896,1.2285,1.2431,1.2431,1.1116,1.1023,0.0,0.0,0.0,0.6338,0.0,0.0,0.0,0.0,1.1489,0.0,0.0,0.0,0.0,0.0,0.0,0.0,0.0,0.0,0.0,0.0,0.0,0.0,0.0,0.0,0.0,0.0,0.0,0.0,0.0,0.0,0.6276,0.6101,0.5909,0.58,0.5657,0.5545,0.5395,0.5395,0.5395,0.5395,0.5395,0.5395,0.5395,0.5395,0.5395,0.5395,0.5395,0.5395,0.5395,0.5395,0.5395,0.5395,0.5395,0.5395,0.5429,0.5688,0.5796,0.5844,0.6187,0.6296,0.63,0.63,0.63,0.63,0.63,0.6395,0.6508,0.6511,0.6688,0.6879,0.6883,0.6991,0.7095,0.7095,0.7095,0.7095,0.7095,0.7095,0.7095,0.7095,0.7095,0.7095,0.7095,0.7095,0.7095,0.7095,0.7095,0.7095,0.7095,0.7095,0.7095,0.7095,0.7095,0.7095,0.7095,0.8189,0.9318,1.0438,1.094,1.1237,1.1283,1.1665,1.1848,1.1896,1.3151,1.3199,1.1896,1.3199,1.383,1.3776,1.2479,1.1848,0.0,0.0,0.6451,0.7138,0.0,0.0,0.0,0.0,0.0,0.0,0.0,0.0,0.0,0.0,0.0,0.0,0.0,0.0,0.0,0.0,0.0,0.0,0.0,0.0,0.0,0.0,0.0,0.0,0.5918,0.0,0.0,0.6112,0.5969,0.5919,0.5718,0.5566,0.5545,0.5446,0.5395,0.5395,0.5395,0.5395,0.5395,0.5395,0.5395,0.5395,0.5395,0.5395,0.5395,0.5395,0.5395,0.5395,0.5395,0.5457,0.5559,0.5627,0.5722,0.5844,0.6194,0.63,0.63,0.63,0.63,0.63,0.63,0.6334,0.6412,0.6569,0.6698,0.6824,0.6974,0.7061,0.7095,0.7095,0.7095,0.7095,0.7095,0.7095,0.7095,0.7095,0.7095,0.7095,0.7095,0.7095,0.7095,0.7095,0.7095,0.7095,0.7095,0.7095,0.7095,0.7095,0.7095,0.7404,0.8233,0.9362,1.0628,1.1958,1.1563,1.2132,1.3927,1.3507,1.3638,1.4465,1.4949,1.4949,1.4465,1.4956,1.5146,1.5146,1.4711,1.4465,0.63,0.63,0.0,0.7099,0.7296,0.0,0.9159,0.0,0.0,0.0,0.0,0.0,0.0,0.0,0.0,0.0,0.0,0.0,0.0,0.0,0.0,0.0,0.0,0.0,0.0,0.0,0.722,0.6249,0.5949,0.0,0.0,0.0,0.6088,0.5993,0.5844,0.5694,0.5593,0.5525,0.545,0.5395,0.5395,0.5395,0.5395,0.5395,0.5395,0.5395,0.5395,0.5395,0.5395,0.5395,0.5395,0.5395,0.5395,0.5487,0.5596,0.5647,0.5793,0.5993,0.6231,0.63,0.63,0.63,0.63,0.63,0.63,0.6375,0.6497,0.6647,0.6776,0.6902,0.7048,0.7095,0.7095,0.7095,0.7095,0.7095,0.7095,0.7095,0.7095,0.7095,0.7095,0.7095,0.7095,0.7445,0.7577,0.7183,0.7095,0.7095,0.7095,0.7095,0.7272,0.7709,0.7753,0.8432,1.0158,1.0945,1.2008,1.3471,1.3058,1.3562,1.5345,1.4851,1.4949,1.5778,1.5784,1.5784,1.5784,1.5784,1.5784,1.5784,1.5784,1.5784]},{"header":{"parameterUnit":"m.s-1","parameterCategory":1,"la1":30.6,"la2":29.2853,"lo1":-89.7004,"lo2":-87.6739,"dy":0.0162,"dx":0.0183,"nx":112,"ny":82,"refTime":"2025-12-16T12:00:00:Z","depth":0,"parameterNumber":3,"parameterNumberName":"V-component_of_WINDS"},"data":[0.0,0.0,0.0,0.0,0.0,0.0,0.0,0.0,0.0,0.0,0.0,0.0,0.0,0.0,0.0,0.0,0.0,0.0,0.0,0.0,0.0,0.0,0.0,0.0,0.0,0.0,0.0,0.0,0.0,0.0,0.0,0.0,0.0,0.0,0.0,0.0,0.0,0.0,0.0,0.0,0.0,0.0,0.0,0.0,0.0,0.0,0.0,0.0,0.0,0.0,0.0,0.0,0.0,0.0,0.0,0.0,0.0,0.0,0.0,0.0,0.0,0.0,0.0,0.0,0.0,0.0,0.0,0.0,0.0,0.0,0.0,0.0,0.0,0.0,0.0,0.0,0.0,0.0,0.0,0.0,0.0,0.0,0.0,0.0,0.0,0.0,0.0,0.0,0.0,0.0,0.0,2.1903,1.978,1.8489,1.8528,1.9085,1.9549,1.9819,0.0,0.0,0.0,0.0,0.0,0.0,0.0,0.0,0.0,0.0,0.0,0.0,0.0,0.0,0.0,0.0,0.0,0.0,0.0,0.0,0.0,0.0,0.0,0.0,0.0,0.0,0.0,0.0,0.0,0.0,0.0,0.0,0.0,0.0,0.0,0.0,0.0,0.0,0.0,0.0,0.0,0.0,0.0,0.0,0.0,0.0,0.0,0.0,0.0,0.0,0.0,0.0,0.0,0.0,0.0,0.0,0.0,0.0,0.0,0.0,0.0,0.0,0.0,0.0,0.0,0.0,0.0,0.0,0.0,0.0,0.0,0.0,0.0,0.0,0.0,0.0,0.0,0.0,0.0,0.0,0.0,0.0,0.0,0.0,0.0,0.0,0.0,0.0,0.0,0.0,0.0,0.0,0.0,0.0,0.0,0.0,0.0,0.0,0.0,0.0,0.0,0.0,0.0,0.0,2.2754,2.04,1.8812,1.8014,1.8239,1.8817,1.9286,1.9534,0.0,0.0,0.0,0.0,0.0,0.0,0.0,0.0,0.0,0.0,0.0,0.0,0.0,0.0,0.0,0.0,0.0,0.0,0.0,0.0,0.0,0.0,0.0,0.0,0.0,0.0,0.0,0.0,0.0,0.0,0.0,0.0,0.0,0.0,0.0,0.0,0.0,0.0,0.0,0.0,0.0,0.0,0.0,0.0,0.0,0.0,0.0,0.0,0.0,0.0,0.0,0.0,0.0,0.0,0.0,0.0,0.0,0.0,0.0,0.0,0.0,0.0,0.0,0.0,0.0,0.0,0.0,0.0,0.0,0.0,0.0,0.0,0.0,0.0,0.0,0.0,0.0,0.0,0.0,0.0,0.0,0.0,0.0,0.0,0.0,0.0,0.0,0.0,0.0,0.0,0.0,0.0,0.0,0.0,0.0,0.0,0.0,0.0,0.0,0.0,0.0,0.0,0.0,2.2847,2.1465,1.918,1.8097,1.7721,1.8166,1.8555,1.8999,1.9513,2.0091,0.0,0.0,0.0,0.0,0.0,0.0,0.0,0.0,0.0,0.0,0.0,0.0,0.0,0.0,0.0,0.0,0.0,0.0,0.0,0.0,0.0,0.0,0.0,0.0,0.0,0.0,0.0,0.0,0.0,0.0,0.0,0.0,0.0,0.0,0.0,0.0,0.0,0.0,0.0,0.0,0.0,0.0,0.0,0.0,0.0,0.0,0.0,0.0,0.0,0.0,0.0,0.0,0.0,0.0,0.0,0.0,0.0,0.0,0.0,0.0,0.0,0.0,0.0,0.0,0.0,0.0,0.0,0.0,0.0,0.0,0.0,0.0,0.0,0.0,0.0,0.0,0.0,0.0,0.0,0.0,0.0,0.0,0.0,0.0,0.0,0.0,0.0,0.0,0.0,0.0,0.0,0.0,0.0,0.0,0.0,0.0,0.0,0.0,0.0,0.0,0.0,0.0,2.158,2.0416,1.8298,1.7608,1.7497,1.7947,1.8303,1.8798,1.9457,2.0079,0.0,0.0,0.0,0.0,0.0,0.0,0.0,0.0,0.0,0.0,0.0,0.0,0.0,0.0,0.0,0.0,0.0,0.0,0.0,0.0,0.0,0.0,0.0,0.0,0.0,0.0,0.0,0.0,0.0,0.0,0.0,0.0,0.0,0.0,0.0,0.0,0.0,0.0,0.0,0.0,0.0,0.0,0.0,0.0,0.0,0.0,0.0,0.0,0.0,0.0,0.0,0.0,0.0,0.0,0.0,0.0,0.0,0.0,0.0,0.0,0.0,0.0,0.0,0.0,0.0,0.0,0.0,0.0,0.0,0.0,0.0,0.0,0.0,0.0,0.0,0.0,0.0,0.0,0.0,0.0,0.0,0.0,0.0,0.0,0.0,0.0,0.0,0.0,0.0,0.0,0.0,0.0,0.0,0.0,0.0,0.0,0.0,0.0,0.0,0.0,0.0,0.0,2.1425,2.0185,1.7967,1.7476,1.732,1.7368,1.8068,1.8712,1.92,1.997,0.0,0.0,0.0,0.0,0.0,0.0,0.0,0.0,0.0,0.0,0.0,0.0,0.0,0.0,0.0,0.0,0.0,0.0,0.0,0.0,0.0,0.0,0.0,0.0,0.0,0.0,0.0,0.0,0.0,0.0,0.0,0.0,0.0,0.0,0.0,0.0,0.0,0.0,0.0,0.0,0.0,0.0,0.0,0.0,0.0,0.0,0.0,0.0,0.0,0.0,0.0,0.0,0.0,0.0,0.0,0.0,0.0,0.0,0.0,0.0,0.0,0.0,0.0,0.0,0.0,0.0,0.0,0.0,0.0,0.0,0.0,0.0,0.0,0.0,0.0,0.0,0.0,0.0,0.0,0.0,0.0,0.0,0.0,0.0,0.0,0.0,0.0,0.0,0.0,0.0,0.0,0.0,0.0,0.0,0.0,0.0,0.0,0.0,0.0,0.0,0.0,0.0,2.1126,1.9938,0.0,1.7469,1.738,1.7584,1.8661,1.9507,1.9976,0.0,0.0,0.0,0.0,0.0,0.0,0.0,0.0,0.0,0.0,0.0,0.0,0.0,0.0,0.0,0.0,0.0,0.0,0.0,0.0,0.0,0.0,0.0,0.0,0.0,0.0,0.0,0.0,0.0,0.0,0.0,0.0,0.0,0.0,0.0,0.0,0.0,0.0,0.0,0.0,0.0,0.0,0.0,0.0,0.0,0.0,0.0,0.0,0.0,0.0,0.0,0.0,0.0,0.0,0.0,0.0,0.0,0.0,0.0,0.0,0.0,0.0,0.0,0.0,0.0,0.0,0.0,0.0,0.0,0.0,0.0,0.0,0.0,0.0,0.0,0.0,0.0,0.0,0.0,0.0,0.0,0.0,0.0,0.0,0.0,0.0,0.0,0.0,0.0,0.0,0.0,0.0,0.0,0.0,0.0,0.0,0.0,0.0,0.0,0.0,0.0,0.0,2.2066,2.127,2.021,0.0,1.8136,1.8132,1.8471,1.9499,2.0381,2.0963,0.0,0.0,0.0,0.0,0.0,0.0,0.0,0.0,0.0,0.0,0.0,0.0,0.0,0.0,0.0,0.0,0.0,0.0,0.0,0.0,0.0,0.0,0.0,0.0,0.0,0.0,0.0,0.0,0.0,0.0,0.0,0.0,0.0,0.0,0.0,0.0,0.0,0.0,0.0,0.0,0.0,0.0,0.0,0.0,0.0,0.0,0.0,0.0,0.0,0.0,0.0,0.0,0.0,0.0,0.0,0.0,0.0,0.0,0.0,0.0,0.0,0.0,0.0,0.0,0.0,0.0,0.0,0.0,0.0,0.0,0.0,0.0,0.0,0.0,0.0,0.0,0.0,0.0,0.0,0.0,0.0,0.0,0.0,0.0,0.0,0.0,0.0,0.0,0.0,0.0,0.0,0.0,0.0,0.0,0.0,0.0,0.0,0.0,0.0,0.0,0.0,0.0,2.2559,2.1922,2.1053,1.9668,1.9521,1.9647,1.9979,2.0562,2.126,0.0,0.0,0.0,0.0,0.0,0.0,0.0,0.0,0.0,0.0,0.0,0.0,0.0,0.0,0.0,0.0,0.0,0.0,0.0,0.0,0.0,0.0,0.0,0.0,0.0,0.0,0.0,0.0,0.0,0.0,0.0,0.0,0.0,0.0,0.0,0.0,0.0,0.0,0.0,0.0,0.0,0.0,0.0,0.0,0.0,0.0,0.0,0.0,0.0,0.0,0.0,0.0,0.0,0.0,0.0,0.0,0.0,0.0,0.0,0.0,0.0,0.0,0.0,0.0,0.0,0.0,0.0,0.0,0.0,0.0,0.0,0.0,0.0,0.0,0.0,0.0,0.0,0.0,0.0,0.0,0.0,0.0,0.0,0.0,0.0,0.0,0.0,0.0,0.0,0.0,0.0,0.0,0.0,0.0,0.0,0.0,0.0,0.0,0.0,0.0,0.0,0.0,0.0,0.0,2.1774,2.0947,1.995,2.0064,2.0303,2.0541,2.1762,2.2694,2.3126,0.0,0.0,0.0,0.0,0.0,0.0,0.0,0.0,0.0,0.0,0.0,0.0,0.0,0.0,0.0,0.0,0.0,0.0,0.0,0.0,0.0,0.0,0.0,0.0,0.0,0.0,0.0,0.0,0.0,0.0,0.0,0.0,0.0,0.0,0.0,0.0,0.0,0.0,0.0,0.0,0.0,0.0,0.0,0.0,0.0,0.0,0.0,0.0,0.0,0.0,0.0,0.0,0.0,0.0,0.0,0.0,0.0,0.0,0.0,0.0,0.0,0.0,0.0,0.0,0.0,0.0,0.0,0.0,0.0,0.0,0.0,0.0,0.0,0.0,0.0,0.0,0.0,0.0,0.0,0.0,0.0,0.0,0.0,0.0,0.0,0.0,0.0,0.0,0.0,0.0,0.0,0.0,0.0,0.0,0.0,0.0,0.0,0.0,0.0,0.0,0.0,0.0,2.2815,2.2099,2.1484,2.1118,2.1251,2.1581,2.2044,2.306,2.3841,2.4215,0.0,0.0,0.0,0.0,0.0,0.0,0.0,0.0,0.0,0.0,0.0,0.0,0.0,0.0,0.0,0.0,0.0,0.0,0.0,0.0,0.0,0.0,0.0,0.0,0.0,0.0,0.0,0.0,0.0,0.0,0.0,0.0,0.0,0.0,0.0,0.0,0.0,0.0,0.0,0.0,0.0,0.0,0.0,0.0,0.0,0.0,0.0,0.0,0.0,0.0,0.0,0.0,0.0,0.0,0.0,0.0,0.0,0.0,0.0,0.0,0.0,0.0,0.0,0.0,0.0,0.0,0.0,0.0,0.0,0.0,0.0,0.0,0.0,0.0,0.0,0.0,0.0,0.0,0.0,0.0,0.0,0.0,0.0,0.0,0.0,0.0,0.0,0.0,0.0,0.0,0.0,0.0,0.0,0.0,0.0,0.0,0.0,0.0,0.0,0.0,0.0,0.0,2.3264,2.2725,2.245,2.2669,2.2767,2.3141,2.396,2.4289,2.4686,2.5193,0.0,0.0,0.0,0.0,0.0,0.0,0.0,0.0,0.0,0.0,0.0,0.0,0.0,0.0,0.0,0.0,0.0,0.0,0.0,0.0,0.0,0.0,0.0,0.0,0.0,0.0,0.0,0.0,0.0,0.0,0.0,0.0,0.0,0.0,0.0,0.0,0.0,0.0,0.0,0.0,0.0,0.0,0.0,0.0,0.0,0.0,0.0,0.0,0.0,0.0,0.0,0.0,0.0,0.0,0.0,0.0,0.0,0.0,0.0,0.0,2.8287,0.0,0.0,0.0,0.0,0.0,0.0,0.0,0.0,0.0,0.0,0.0,0.0,0.0,0.0,0.0,0.0,0.0,0.0,0.0,0.0,0.0,0.0,0.0,0.0,0.0,0.0,0.0,0.0,0.0,0.0,0.0,0.0,0.0,0.0,0.0,0.0,0.0,0.0,0.0,0.0,0.0,2.3287,2.3087,2.2928,2.2721,2.3314,2.3864,2.4205,2.4669,2.5085,2.5421,0.0,0.0,0.0,0.0,0.0,0.0,0.0,0.0,0.0,0.0,0.0,0.0,0.0,0.0,0.0,0.0,0.0,0.0,0.0,0.0,0.0,0.0,0.0,0.0,0.0,0.0,0.0,0.0,0.0,0.0,0.0,0.0,0.0,0.0,0.0,0.0,0.0,0.0,0.0,0.0,0.0,0.0,0.0,0.0,0.0,0.0,0.0,0.0,0.0,0.0,0.0,0.0,0.0,0.0,0.0,0.0,0.0,0.0,0.0,0.0,0.0,2.9702,0.0,0.0,0.0,0.0,0.0,0.0,0.0,0.0,0.0,0.0,0.0,0.0,0.0,0.0,0.0,0.0,0.0,0.0,0.0,0.0,0.0,0.0,0.0,0.0,0.0,0.0,0.0,0.0,0.0,0.0,0.0,0.0,0.0,0.0,0.0,0.0,0.0,0.0,0.0,0.0,2.4035,2.3543,2.3189,2.3177,2.3668,2.4155,2.4511,2.4877,2.5202,2.5447,2.5547,0.0,0.0,0.0,0.0,0.0,0.0,0.0,0.0,0.0,0.0,0.0,0.0,0.0,0.0,0.0,0.0,0.0,0.0,0.0,0.0,0.0,0.0,0.0,0.0,0.0,0.0,0.0,0.0,0.0,0.0,0.0,0.0,0.0,0.0,0.0,0.0,0.0,0.0,0.0,0.0,0.0,0.0,0.0,0.0,0.0,0.0,0.0,0.0,0.0,0.0,0.0,0.0,0.0,3.5631,3.6161,3.6242,3.6397,3.6595,3.6646,3.3551,3.2384,3.2581,0.0,0.0,0.0,0.0,0.0,0.0,0.0,0.0,0.0,0.0,0.0,0.0,0.0,0.0,0.0,0.0,0.0,0.0,0.0,0.0,0.0,0.0,0.0,0.0,0.0,3.1816,3.1772,0.0,0.0,0.0,0.0,0.0,0.0,0.0,0.0,0.0,0.0,0.0,0.0,2.4874,2.4131,2.362,2.37,2.3957,2.4324,2.4756,2.5028,2.5217,2.5395,2.5503,2.5573,0.0,0.0,0.0,0.0,0.0,0.0,0.0,0.0,0.0,0.0,0.0,0.0,0.0,0.0,0.0,0.0,0.0,0.0,0.0,0.0,0.0,0.0,0.0,0.0,0.0,0.0,0.0,0.0,0.0,0.0,0.0,0.0,2.9112,3.0938,0.0,0.0,0.0,0.0,0.0,0.0,0.0,0.0,0.0,0.0,0.0,0.0,0.0,3.6177,3.6042,3.7264,3.7454,3.6631,3.8279,3.8672,3.8004,3.8757,3.8723,3.8016,3.7293,0.0,3.4683,3.4197,0.0,0.0,0.0,0.0,0.0,0.0,0.0,0.0,0.0,0.0,0.0,0.0,0.0,0.0,0.0,0.0,0.0,0.0,0.0,0.0,0.0,0.0,3.381,3.3067,3.2981,3.2975,0.0,3.149,3.0255,2.9346,2.9099,0.0,0.0,0.0,0.0,0.0,0.0,0.0,2.5034,2.5008,2.4762,2.3797,2.4309,2.4727,2.4797,2.5138,2.5375,2.5398,2.5477,2.5503,2.5503,2.559,0.0,0.0,0.0,0.0,0.0,0.0,0.0,0.0,0.0,0.0,0.0,0.0,0.0,0.0,0.0,0.0,0.0,0.0,0.0,0.0,0.0,0.0,0.0,0.0,0.0,0.0,0.0,0.0,0.0,2.9652,3.156,3.1845,3.241,3.2502,0.0,0.0,0.0,0.0,0.0,0.0,0.0,0.0,0.0,3.5943,3.7533,3.8143,3.7627,3.9083,3.9374,3.8534,3.9783,4.0193,3.9822,4.0297,4.0253,3.9811,3.9685,3.889,3.7518,3.6088,3.5217,3.4737,0.0,0.0,0.0,0.0,3.3633,3.3116,3.3675,3.3459,0.0,3.2264,0.0,0.0,0.0,0.0,0.0,0.0,0.0,0.0,0.0,0.0,0.0,3.4588,3.4607,3.4607,3.4607,3.4006,3.2927,0.0,3.1064,3.0706,2.8936,0.0,0.0,0.0,0.0,0.0,2.5932,2.5596,2.5041,2.4069,2.4474,2.4804,2.4804,2.5133,2.5545,2.6043,2.6145,2.6414,2.6945,2.7022,2.6856,0.0,0.0,0.0,0.0,0.0,0.0,0.0,0.0,0.0,0.0,0.0,0.0,0.0,0.0,0.0,0.0,0.0,0.0,0.0,0.0,0.0,0.0,0.0,0.0,0.0,0.0,0.0,0.0,3.232,3.3817,3.3347,3.4301,3.4549,0.0,0.0,0.0,0.0,0.0,0.0,3.5946,3.691,3.7474,3.7461,3.9135,3.9703,3.9023,4.0307,4.0621,3.9994,4.064,4.0952,4.0955,4.1052,4.1033,4.0954,4.0989,4.0579,3.9755,3.7806,3.6923,3.674,3.6047,3.5881,3.6129,3.6647,3.6545,3.6277,3.7002,3.6815,3.6044,3.4804,0.0,3.3846,3.2734,0.0,0.0,0.0,0.0,3.4245,3.4648,3.476,3.4919,3.5506,3.5646,3.5646,3.5646,3.5611,3.4944,0.0,3.2863,3.2532,3.0349,0.0,0.0,0.0,0.0,2.7383,2.6961,2.6384,2.5631,2.4622,2.5015,2.5258,2.5118,2.5564,2.617,2.6885,2.6973,2.7311,2.8029,2.8121,2.7899,2.7297,0.0,0.0,0.0,0.0,0.0,0.0,0.0,0.0,0.0,0.0,0.0,0.0,0.0,0.0,0.0,0.0,0.0,0.0,0.0,0.0,0.0,0.0,0.0,0.0,0.0,0.0,0.0,0.0,0.0,3.7205,3.7201,0.0,0.0,0.0,0.0,3.6532,3.7303,3.7894,3.8216,3.9062,3.9544,3.9545,4.0457,4.084,4.0684,4.0774,4.0785,4.0747,4.0785,4.0805,4.0805,4.0813,4.0816,4.0827,4.0942,4.0907,4.0662,3.9794,3.8945,3.8194,3.8159,3.8139,3.8153,3.8259,3.828,3.8268,3.8454,3.7949,3.7226,3.7129,3.6496,3.5898,3.6583,3.6752,0.0,0.0,3.609,3.6513,3.5669,3.545,3.5469,3.5508,3.5508,3.5508,3.5508,3.5501,3.5239,0.0,3.4143,3.3742,3.2542,0.0,3.1676,3.0638,3.0224,2.9475,2.7945,2.7695,2.7082,2.5503,2.6208,2.6559,2.5997,2.6823,2.7529,2.7827,2.7843,2.7867,2.7911,2.8031,2.8098,2.8045,2.7351,0.0,0.0,0.0,0.0,0.0,0.0,0.0,0.0,0.0,0.0,0.0,0.0,0.0,0.0,0.0,0.0,0.0,0.0,0.0,0.0,0.0,0.0,0.0,0.0,0.0,0.0,0.0,0.0,3.8639,3.9528,0.0,3.9379,3.9338,3.9349,3.9406,3.9718,3.9902,3.9946,4.0235,4.0413,4.0403,4.0714,4.0854,4.0797,4.0762,4.0736,4.0736,4.0736,4.0736,4.0742,4.0784,4.0797,4.0801,4.0857,4.0847,4.0777,4.0481,4.0189,3.9917,3.9995,4.0033,4.0047,4.0058,4.0074,3.9993,3.9447,3.9034,3.868,3.8132,3.7723,3.7472,3.7689,3.7734,3.751,3.6575,3.653,3.6562,3.5732,3.55,3.55,3.55,3.55,3.55,3.55,3.55,3.5371,3.4892,3.4806,3.4421,3.3278,3.2879,3.242,3.1517,3.0704,2.9806,2.8712,2.8117,2.7383,2.6282,2.6615,2.6859,2.6774,2.7227,2.7848,2.8615,2.8665,2.896,2.9614,2.9681,2.9515,2.9067,2.8807,2.8125,0.0,0.0,0.0,0.0,0.0,0.0,0.0,0.0,0.0,0.0,0.0,0.0,0.0,0.0,0.0,0.0,0.0,0.0,0.0,0.0,0.0,0.0,0.0,0.0,0.0,0.0,4.0068,3.9806,4.1245,4.1909,4.0966,4.1441,4.1675,4.1325,4.1354,4.1195,4.0821,4.0797,4.0781,4.0761,4.0781,4.0743,4.0698,4.0654,4.0636,4.0636,4.0636,4.0636,4.0623,4.0674,4.0698,4.0698,4.0743,4.0781,4.0761,4.0785,4.0803,4.0805,4.0897,4.0937,4.0937,4.0935,4.0925,4.0839,4.0213,3.9836,3.9544,3.9249,3.8928,3.8704,3.8919,3.8953,3.8653,3.7459,3.7142,3.6885,3.5788,3.55,3.55,3.55,3.55,3.5486,3.5383,3.5369,3.5246,3.487,3.4953,3.481,3.3838,3.3512,3.3103,3.2196,3.1452,3.062,2.9537,2.8943,2.8191,2.7126,2.7366,2.7633,2.7641,2.8021,2.8602,2.9475,2.9544,2.9844,3.0535,3.0591,3.0403,2.9977,3.0019,2.9473,2.8301,0.0,0.0,0.0,0.0,0.0,0.0,0.0,0.0,0.0,0.0,0.0,0.0,0.0,0.0,0.0,0.0,0.0,0.0,0.0,0.0,0.0,0.0,0.0,4.0544,4.0592,4.0718,4.0948,4.2467,4.2791,4.1091,4.2457,4.308,4.2205,4.2108,4.1699,4.0848,4.0789,4.0757,4.0697,4.0692,4.0636,4.0496,4.0496,4.0496,4.0496,4.0496,4.0496,4.0496,4.0496,4.0496,4.0504,4.0643,4.0692,4.0703,4.0761,4.0789,4.0789,4.0797,4.0797,4.0797,4.0793,4.0793,4.0789,4.0789,4.0279,3.977,4.0532,4.018,3.959,4.0434,4.0603,4.015,3.8469,3.8007,3.7603,3.5942,3.55,3.55,3.5493,3.5493,3.5405,3.5157,3.5088,3.4916,3.4315,3.4676,3.487,3.4281,3.4195,3.3839,3.2781,3.2619,0.0,3.0485,3.0246,2.9641,2.8092,2.8613,2.8966,2.8649,2.9334,2.998,3.0405,3.0442,3.0472,3.0533,3.0597,3.0677,3.0771,3.0875,3.0937,3.0937,0.0,0.0,0.0,0.0,0.0,0.0,0.0,0.0,0.0,0.0,0.0,0.0,0.0,0.0,0.0,0.0,0.0,0.0,0.0,0.0,0.0,0.0,4.0852,4.1554,4.2751,4.3349,4.2774,4.4187,4.4806,4.3734,4.4055,4.3947,4.2967,4.2369,4.1606,4.0636,4.0571,4.057,4.0559,4.0552,4.0549,4.0496,4.0496,4.0496,4.0496,4.0496,4.0496,4.0496,4.0496,4.0496,4.0496,4.053,4.0552,4.0559,4.057,4.0571,4.0597,4.0733,4.0797,4.0789,4.0757,4.0672,4.0571,4.0571,4.0436,4.0294,4.0513,4.0402,4.0236,4.0475,4.0534,4.015,3.8469,3.8007,3.7603,3.5942,3.55,3.5446,3.5266,3.5207,3.513,3.4879,3.4803,3.4685,3.4269,3.4338,3.4327,3.3974,3.3915,3.3802,3.3508,3.2981,0.0,3.1995,3.1421,3.0889,3.046,3.0782,3.1067,3.1176,3.155,3.1672,3.1353,3.1346,3.1364,3.1443,3.1459,3.1825,3.256,3.2005,3.1697,0.0,0.0,0.0,0.0,0.0,0.0,0.0,0.0,0.0,0.0,0.0,0.0,0.0,0.0,0.0,0.0,0.0,0.0,0.0,0.0,0.0,0.0,4.1769,4.2607,4.352,4.4258,4.4509,4.4007,4.5075,4.553,4.469,4.4901,4.4686,4.3721,4.2915,4.2054,4.1093,4.0708,4.0496,4.0496,4.0496,4.0496,4.0496,4.0496,4.0496,4.0496,4.0496,4.0496,4.0496,4.0496,4.0496,0.0,4.0496,4.0496,4.0496,4.0496,4.0496,0.0,0.0,0.0,0.0,0.0,4.0574,4.0496,4.0496,4.0496,4.0496,4.0496,4.0496,4.0496,4.0496,4.0496,4.0227,3.8911,3.8546,3.8127,3.6309,3.5924,3.582,3.5092,3.5008,3.499,3.4582,3.4497,3.4409,3.4093,3.4031,0.0,3.3829,3.3807,3.3807,3.3807,3.3403,3.2968,3.2638,3.2192,3.177,3.1452,3.164,3.1898,3.2175,3.2444,0.0,0.0,0.0,3.2226,3.2305,3.2359,0.0,0.0,0.0,0.0,0.0,0.0,0.0,0.0,3.2959,3.2892,0.0,0.0,0.0,0.0,0.0,0.0,0.0,0.0,0.0,0.0,0.0,0.0,0.0,0.0,0.0,0.0,4.3922,4.4788,4.5653,4.521,4.4759,4.4662,4.531,4.5434,4.4549,4.5155,4.5248,4.4374,4.3643,4.2816,4.1846,0.0,0.0,0.0,0.0,4.0496,4.0496,4.0496,4.0496,4.0496,4.0496,4.0496,4.0496,4.0496,4.0496,4.0496,4.0496,4.0496,4.0496,4.0496,4.0496,4.0496,4.0496,4.0496,4.0496,4.0496,4.0496,4.0496,4.0496,0.0,0.0,4.0496,4.0496,4.0496,4.0496,4.0496,4.0323,3.9534,3.9304,3.8854,3.6929,3.661,3.6481,3.5228,3.5106,3.5135,3.4568,3.4438,3.4371,3.4131,3.4082,3.4082,3.4082,3.3935,3.3807,3.3807,3.3807,3.3532,3.2821,3.2729,3.248,3.1795,0.0,0.0,3.2638,3.2904,3.3137,3.3327,3.3333,3.3351,3.3411,3.363,3.4443,3.5943,3.5978,3.6732,3.8272,3.8279,3.8263,3.8133,3.436,3.4214,0.0,0.0,0.0,0.0,0.0,0.0,0.0,0.0,0.0,0.0,0.0,0.0,0.0,0.0,0.0,4.3036,4.3837,4.4652,4.5519,4.5514,4.5171,4.4457,4.512,4.5307,4.4413,4.5092,4.5248,4.4374,4.4162,4.3393,4.1885,4.1643,0.0,4.0516,4.0496,4.0496,4.0496,4.0496,4.0496,4.0496,0.0,0.0,4.0496,4.0496,4.0496,4.0496,4.0496,4.0496,4.0496,4.0496,4.0496,4.0496,4.0496,4.0496,4.0496,4.0496,4.0496,4.0496,4.0496,4.0496,4.0496,4.0496,4.0496,4.0496,4.0496,4.0496,0.0,3.9534,3.9304,3.8981,3.7618,3.7315,3.7167,3.6485,3.6359,3.6298,3.5965,3.5887,3.5873,3.5822,3.5826,3.5826,3.5826,3.4688,3.3807,3.3807,3.3807,3.3733,3.3587,3.3568,3.3582,3.3653,3.3944,3.4517,3.5435,3.5748,3.5914,3.5962,3.5962,3.5975,3.599,3.6742,3.7297,3.7632,3.7651,3.7806,3.8135,3.8073,3.842,3.9028,3.7574,3.7232,0.0,0.0,0.0,0.0,0.0,0.0,0.0,0.0,0.0,0.0,0.0,4.1333,0.0,0.0,4.3392,4.4261,4.4702,4.5051,4.5304,4.5342,4.5237,4.4981,4.5325,4.5441,4.4998,4.5344,4.5421,4.4979,4.4547,4.3932,4.3104,4.2681,4.1978,4.0926,4.1048,4.0883,4.0304,4.0422,4.0496,4.0496,4.0496,4.0496,4.0496,4.0496,4.0496,4.0496,4.0496,4.0496,4.0496,4.0496,4.0496,4.0496,4.0496,4.0496,4.0496,4.0496,4.0496,4.0496,4.0496,4.0496,4.0496,4.0496,4.0496,4.0496,4.0496,4.0496,4.0419,4.0015,3.9802,3.9428,3.826,3.7923,3.7662,3.671,3.6597,3.6623,3.637,3.6303,3.6303,3.6303,3.6303,3.6303,3.6303,3.5605,3.5055,3.5055,3.5055,3.5055,3.5055,3.4669,3.4676,3.5386,3.5364,3.575,3.6859,3.7202,3.7353,3.7353,3.7353,3.7353,3.7353,3.7803,3.8254,3.8698,3.8698,3.8891,3.9296,3.9264,3.9477,3.9881,3.9487,3.9287,0.0,0.0,0.0,0.0,0.0,0.0,0.0,0.0,4.0724,4.1311,4.2097,4.2815,4.3316,4.3978,4.4688,4.5389,4.5448,4.5322,4.5041,4.4988,4.5107,4.5371,4.541,4.5429,4.5495,4.5504,4.5522,4.5605,4.496,4.447,4.4316,4.3682,4.2817,4.1686,4.1916,4.1618,4.0692,4.0907,4.1016,4.0997,4.0765,4.0663,4.0644,4.0491,4.0414,4.0433,4.0481,4.0496,4.0496,4.0496,4.0473,4.0414,4.0414,4.0414,4.0441,4.0481,4.0496,4.0496,4.0496,4.0496,4.0496,4.0496,4.0496,4.0489,4.0449,4.0414,4.0406,4.0345,4.0167,3.977,3.8799,3.8507,3.8171,3.703,3.6939,3.7025,3.6801,3.6762,3.6762,3.6762,3.6762,3.6762,3.6762,3.6762,3.6652,3.634,3.6303,3.6303,3.6303,3.5697,3.5643,3.6677,3.6385,3.6613,3.7827,3.827,3.8488,3.8488,3.8488,3.8488,3.8488,3.8488,3.8815,3.9515,3.9534,3.9842,4.0496,4.0496,4.0496,4.0496,4.0496,4.0496,3.7175,3.7566,0.0,4.0067,4.0467,4.1083,0.0,0.0,4.3983,4.4056,4.475,4.513,4.4325,4.4633,4.5044,4.515,4.4908,4.4695,4.4657,4.4663,4.467,4.4707,4.4707,4.4837,4.5118,4.5169,4.5292,4.5577,4.5518,4.5133,4.4335,4.4201,4.3788,4.2936,4.2934,4.2885,4.2763,4.2788,4.2816,4.2797,4.1713,4.1208,4.1189,4.0473,4.0139,4.0158,4.0389,4.0496,4.0496,4.0496,4.0356,4.0139,4.0139,4.0139,4.0167,4.0406,4.0496,4.0496,4.0496,4.0496,4.0496,4.0496,4.0496,4.0457,4.0213,4.0139,4.0072,3.9778,3.9679,3.9557,3.9126,3.9016,3.8909,3.8519,3.8462,3.8477,3.8432,3.8432,3.8432,3.8432,3.8432,3.8432,3.8432,3.8432,3.7955,3.6523,3.6303,3.6303,3.6303,3.6211,3.6398,3.6991,3.7004,3.7546,3.8984,3.9788,4.0227,4.0227,4.0227,4.0227,4.0227,4.0227,4.0265,4.0362,4.0362,4.0419,4.0496,4.0496,4.0496,4.0496,4.0496,4.0496,3.9151,0.0,0.0,0.0,4.1968,4.2676,4.428,4.455,4.4611,4.5046,4.5282,4.5265,4.4834,4.4794,4.4812,0.0,4.4682,4.4514,4.4276,4.4247,4.3993,4.3341,4.3855,4.4468,4.5033,4.5282,4.5438,4.5586,4.5594,4.5441,4.5075,4.5056,4.4591,4.3599,4.3532,4.3195,4.2525,4.2476,4.2466,4.2436,4.1954,4.1707,4.1688,4.1552,4.1628,4.1844,4.1723,4.1666,4.1647,4.1443,4.1315,4.1204,4.1204,4.1204,4.1135,4.0502,4.0364,4.0481,4.033,4.0278,4.0232,4.0034,3.9984,3.9964,3.984,3.9808,3.9775,3.9634,3.945,3.9276,3.9139,3.8985,3.8844,3.8719,3.8707,3.8707,3.8707,3.8707,3.8707,3.8707,3.8707,3.8707,3.8707,3.8707,3.8469,3.7808,3.7698,3.7698,3.7698,3.7276,3.7207,3.78,3.8594,3.9329,3.9942,4.0304,4.0496,4.0496,4.0496,4.0496,4.0496,4.0496,4.0496,4.0496,4.0989,4.1258,4.1258,4.1777,4.2008,4.2008,4.2008,4.2008,4.04,0.0,0.0,4.2696,4.326,4.3917,4.4686,4.4752,4.4823,4.535,4.5201,4.4954,4.4954,4.467,0.0,4.4428,4.435,4.4194,4.3912,4.3865,4.3582,4.2869,4.3605,4.4414,4.5041,4.5322,4.5504,4.5586,4.5513,4.5504,4.5605,4.5429,4.4995,4.4262,4.4086,4.3623,4.2806,4.2743,4.2731,4.2712,4.2467,4.2354,4.2366,4.2379,4.2591,4.2916,4.2531,4.2354,4.2343,4.21,4.1958,4.1899,4.1899,4.1899,4.1775,4.0844,4.0679,4.0892,4.0689,4.0617,4.0585,4.0337,4.0266,4.0243,4.0158,4.0152,4.0128,4.0039,3.9829,3.9653,3.9653,3.9508,3.9368,3.9368,3.9368,3.9368,3.9368,3.9368,3.9368,3.9368,3.9368,3.9368,3.9368,3.9368,3.9368,3.9368,3.9368,3.9203,3.8762,3.8331,3.8253,3.8678,4.0023,4.0854,4.0854,4.1093,4.1227,4.1227,4.1227,4.1227,4.1227,4.1227,4.1227,4.1227,4.1835,4.2162,4.2162,4.2797,4.3104,4.3104,4.3104,4.3104,0.0,0.0,4.2513,4.4206,4.4533,4.4686,4.5564,4.5413,4.508,4.5107,4.4849,4.4624,4.4624,4.4276,4.4031,4.4031,4.3742,4.3531,4.3513,4.3513,4.3629,4.3903,4.4332,4.4707,0.0,4.5107,4.5243,4.5577,4.5302,4.5253,4.5577,4.4988,4.4769,4.5047,4.475,4.4568,4.4517,4.4517,4.4517,4.4517,4.3662,4.3265,4.3228,4.246,4.2268,4.2502,4.216,4.2021,4.2002,4.199,4.1847,4.1599,4.1599,4.1599,4.1613,4.1557,4.1724,4.1939,4.1958,4.1946,4.1946,4.1933,4.1933,4.1883,4.1619,4.1539,4.1471,4.1164,4.1054,4.1038,4.1038,4.1038,4.1022,4.1022,4.1022,4.1022,4.1022,4.1022,4.1022,4.1022,4.1022,4.1022,4.1022,4.1022,4.1022,4.1022,4.1022,4.0453,3.8909,3.9184,3.955,3.9561,4.0883,4.175,4.175,4.2547,4.3028,4.3028,4.3028,4.3028,4.3028,4.3028,4.3028,4.3028,4.3047,4.3066,4.3066,4.3085,4.3104,4.3104,4.3104,4.3104,0.0,0.0,4.3823,4.443,4.4731,4.4978,4.5275,4.5039,4.4605,4.4011,4.3634,4.3414,4.3414,4.3113,4.3051,4.3586,4.3563,4.3515,4.3515,4.3693,4.3677,4.3252,4.4221,0.0,0.0,0.0,0.0,4.5586,4.5292,4.5159,4.5253,4.483,4.4644,4.4757,4.4401,4.419,4.419,4.3974,4.3974,4.419,4.389,4.39,4.414,4.361,4.356,4.3868,4.3487,4.3338,4.3324,4.3095,4.2945,4.2869,4.2869,4.2869,4.2869,4.2869,4.2913,4.2869,4.2025,4.1892,4.2027,4.182,4.1893,4.2021,4.1684,4.1609,4.1522,4.1188,4.1095,4.1095,4.1095,4.1095,4.1095,4.1095,4.1095,4.1095,4.1095,4.1095,4.1095,4.1095,4.1095,4.1095,4.1095,4.1095,4.1095,4.1095,4.1095,4.0893,4.0361,4.0858,4.1259,4.1259,4.2106,4.2662,4.2662,4.2931,4.3104,4.3104,4.3142,4.3181,4.3181,4.3257,4.3294,4.3294,4.3871,4.4162,4.4162,4.4699,4.4952,4.4952,4.4952,4.4952,0.0,4.2041,4.3424,4.3732,4.4135,4.4456,4.4456,4.443,4.4148,4.3297,4.2855,4.2628,4.2628,4.2447,4.2561,4.3369,4.3515,4.3515,4.3515,4.3788,4.3811,4.3286,4.424,0.0,0.0,0.0,0.0,4.5243,4.5033,4.4919,4.4919,4.4474,4.4266,4.4373,4.4016,4.3836,4.3836,4.3614,4.3679,4.4001,4.4001,4.4204,4.4599,4.4175,4.4132,4.4359,4.3989,4.3836,4.3804,4.3597,4.3515,4.3515,4.3515,4.3515,4.3515,4.3515,4.358,4.3562,4.2738,4.2595,4.2769,4.2701,4.2835,4.2945,4.2742,4.2562,4.2407,4.2189,4.2053,4.1974,4.1974,4.1974,4.1974,4.1974,4.1974,4.1974,4.1974,4.1974,4.1974,4.1974,4.1974,4.1974,4.1974,4.1974,4.1974,4.1974,4.1974,4.1785,4.1338,4.1758,4.2157,4.2276,4.3025,4.3528,4.3528,4.3816,4.4003,4.4064,4.4117,4.4149,4.4167,4.4253,4.4296,4.4296,4.4837,4.5129,4.5129,4.565,4.5899,4.5899,4.5899,4.5899,4.041,4.0979,4.154,4.238,4.2895,4.3202,4.3202,4.3549,4.3613,4.2809,4.243,4.2249,0.0,0.0,4.2561,4.3369,4.3515,4.3515,4.3515,4.3788,4.4016,0.0,0.0,0.0,0.0,0.0,0.0,4.454,0.0,4.4567,4.4567,4.3884,4.3646,4.3971,4.3679,4.3515,4.3515,4.3513,4.3695,4.4001,4.4001,4.419,4.4553,4.4165,4.3971,4.3955,4.3629,4.3515,4.3515,4.3515,4.3515,4.3515,4.3515,4.3496,4.3531,4.3531,4.3742,4.4028,4.4043,4.4058,4.4117,4.4501,4.465,4.4644,4.4618,4.4359,4.4043,4.3998,4.3772,4.3513,4.3496,4.3515,4.3515,4.3515,4.3515,4.3515,4.3515,4.3515,4.3515,4.3515,4.3515,4.3515,4.3515,4.3515,4.3515,4.3515,4.3515,4.3059,4.1849,4.2004,4.2342,4.2673,4.3703,4.4374,4.4374,4.5122,4.5665,4.579,4.5816,4.5836,4.5903,4.5916,4.5916,4.5916,4.5916,4.5916,4.5916,4.5916,4.5916,4.5916,4.5916,4.5916,3.9899,4.0875,4.1942,4.2181,4.2134,4.2038,4.2038,4.1932,4.1604,4.0809,4.1045,4.1407,0.0,0.0,0.0,4.3369,4.3515,0.0,4.3515,4.3788,0.0,0.0,0.0,4.4593,4.4593,4.4593,0.0,0.0,4.4001,4.4146,4.4146,4.3742,4.3548,4.3612,4.3548,4.3515,4.3515,4.3758,4.3927,4.4001,4.4001,4.4043,4.4132,4.3788,4.3631,4.3612,4.3531,4.3515,4.3515,4.3515,4.3515,4.3515,4.3515,4.3646,4.3881,4.3881,4.4121,4.4468,4.4726,4.483,4.4842,4.4943,4.514,4.5312,4.5052,4.4889,4.4701,4.4161,4.394,4.3802,4.3563,4.3515,4.3515,4.3515,4.3515,4.3515,4.3515,4.3515,4.3515,4.3515,4.3515,4.3515,4.3515,4.3515,4.3515,4.3515,4.3515,4.3384,4.3059,4.3577,4.3995,4.4076,4.4794,4.5267,4.5267,4.5569,4.5749,4.5796,4.5948,4.6024,4.6045,4.6145,4.62,4.62,4.62,4.62,4.62,4.62,4.62,4.62,4.62,4.62,3.9551,4.0176,4.0772,4.0772,4.0826,4.0841,4.0841,4.0975,4.0921,4.021,4.0617,0.0,0.0,0.0,0.0,0.0,0.0,0.0,4.3515,4.3788,4.4031,0.0,4.4252,0.0,4.414,4.4125,4.3946,0.0,4.382,4.394,4.3788,4.3614,4.3515,4.3515,4.3515,4.3515,4.3515,4.3695,4.3772,4.3772,4.3772,4.3772,4.3772,4.358,4.3515,4.3515,0.0,4.358,4.3726,4.3726,4.3726,4.3726,4.3726,4.3833,4.4001,4.4001,4.4346,4.4849,4.5041,4.5201,4.5322,4.5322,4.5438,4.5568,4.539,4.5222,4.4977,4.4414,4.415,4.3924,4.358,4.3515,4.3515,4.3515,4.3515,4.3515,4.3515,4.3515,4.3515,4.3515,4.3515,4.3515,4.3515,4.3515,4.3515,4.3515,4.3515,4.3546,4.3693,4.4237,4.4663,4.4793,4.5283,4.5618,4.5669,4.5761,4.5846,4.593,4.6047,4.614,4.6196,4.6268,4.6308,4.6308,4.6308,4.6308,4.6308,4.6308,4.6308,4.6308,4.6308,4.6308,3.9274,3.9212,3.8957,3.9017,3.9339,3.9651,3.9779,4.0328,4.0735,4.036,0.0,0.0,4.1635,0.0,4.269,4.3404,0.0,4.3515,4.3515,4.3758,4.3833,4.3597,4.3788,4.3852,4.3597,4.3531,4.3515,4.3515,4.3756,4.382,4.3513,4.3515,4.3515,4.3515,4.3515,4.3515,4.3515,4.3515,4.3515,4.3515,4.3515,4.3515,4.3515,4.3515,4.3513,4.3582,0.0,0.0,4.4073,4.4073,4.4073,4.4073,4.4073,4.4102,4.4146,4.4146,4.4568,4.5169,4.5169,4.5352,4.5594,4.5594,4.5594,4.5594,4.5594,4.54,4.5085,4.4714,4.4364,4.3986,4.3597,4.3515,4.3515,4.3515,4.3515,4.3515,4.3515,4.3515,4.3515,4.3515,4.3515,4.3515,4.3515,4.3515,4.3515,4.3515,4.3531,4.3679,4.3971,4.4346,4.4739,4.5063,4.54,4.5648,4.5783,4.5803,4.5896,4.6082,4.6117,4.6175,4.6308,4.6308,4.6308,4.6308,4.6308,4.6308,4.6308,4.6308,4.6308,4.6308,4.6308,4.6308,3.8894,3.8486,3.8211,3.8649,3.8522,3.8429,3.9085,3.9356,0.0,0.0,0.0,4.1649,4.2101,4.2796,0.0,4.3478,0.0,0.0,0.0,0.0,4.3679,0.0,0.0,0.0,0.0,0.0,0.0,0.0,0.0,4.3546,4.3496,4.3515,4.3515,4.3515,4.3515,4.3515,4.3515,4.3515,4.3515,4.3515,4.3515,4.3515,4.3515,4.3515,4.3646,4.3909,4.3909,0.0,4.4501,4.4501,4.4501,4.4501,4.4501,4.467,4.4919,4.4919,4.5161,4.5513,4.5513,4.5559,4.5594,4.5594,4.5594,4.5594,4.5594,4.5559,4.54,4.4769,4.454,4.4337,4.3662,4.3515,4.3515,4.3515,4.3515,4.3515,4.3515,4.3515,4.3515,4.3515,4.3515,4.3515,4.3515,4.3515,4.3515,4.3515,4.3742,4.3924,4.4001,4.4346,4.4739,4.5063,4.54,4.5648,4.5783,4.5845,4.5948,4.6084,4.6201,4.6288,4.6308,4.6308,4.6308,4.6308,4.6308,4.6308,4.6308,4.6308,4.6308,4.6308,4.6308,4.6308,3.8186,3.7929,3.7667,3.8167,3.8082,3.8111,3.8915,0.0,0.0,0.0,0.0,4.1657,4.1884,0.0,0.0,0.0,0.0,0.0,0.0,0.0,0.0,0.0,0.0,0.0,0.0,0.0,0.0,0.0,0.0,4.3515,4.3515,4.3515,4.3515,4.3515,4.3515,4.3515,4.3515,4.3515,4.3515,4.3496,4.3679,4.3756,4.3775,4.3992,4.415,4.4304,4.4304,0.0,4.4861,4.4861,4.4861,4.4861,4.4861,4.4954,4.5096,4.5096,4.5312,4.5594,4.5594,4.5594,4.5594,4.5594,4.5594,4.5594,4.5594,4.5594,4.5457,4.4781,4.4593,4.4433,4.3695,4.3515,4.3515,4.3515,4.3515,4.3515,4.3515,4.3515,4.3515,4.3515,4.3515,4.3515,4.3515,4.3646,4.3756,4.3756,4.4076,4.4373,4.4561,4.4745,4.4919,4.5085,4.54,4.5669,4.5847,4.5886,4.5967,4.6087,4.6224,4.6268,4.62,4.6268,4.6308,4.6308,4.6308,4.6308,4.6308,4.6308,4.6308,4.6308,4.6308,4.6308,3.7611,3.7396,3.7173,3.7755,3.7875,3.8089,3.8994,3.9218,0.0,0.0,0.0,0.0,4.1705,0.0,0.0,0.0,0.0,0.0,0.0,0.0,0.0,0.0,0.0,0.0,0.0,0.0,0.0,0.0,0.0,0.0,4.3496,4.3515,4.3515,4.3515,4.3515,4.3531,4.3614,4.3614,4.3646,4.3744,4.4001,4.4117,4.4132,4.446,4.4631,4.4714,4.4714,0.0,0.0,4.5211,4.5211,4.5211,4.5211,4.5211,4.5211,4.5211,4.5362,4.5594,4.5594,4.5594,4.5594,4.5594,4.5594,4.5594,4.5594,4.5594,4.5457,4.4781,4.4593,4.4433,4.3695,4.3515,4.3513,4.3597,4.3614,4.3629,4.3712,4.3662,4.3614,4.3614,4.3548,4.3513,4.3597,4.3836,4.4028,4.4117,4.4455,4.4793,4.5063,4.515,4.5211,4.5211,4.5465,4.572,4.5881,4.5924,4.5995,4.6122,4.6246,4.6248,4.6147,4.6247,4.6308,4.6308,4.6308,4.6308,4.6308,4.6308,4.6308,4.6308,4.6308,4.6308,3.736,3.6882,3.6704,3.7667,3.7767,3.7972,3.9271,0.0,0.0,0.0,4.0544,4.0795,4.1997,0.0,0.0,0.0,0.0,0.0,0.0,0.0,0.0,0.0,0.0,0.0,0.0,0.0,0.0,0.0,0.0,0.0,4.3513,4.3515,4.3515,4.3515,4.3515,4.3646,4.3955,4.3955,4.415,4.4501,4.4527,4.454,4.454,4.458,4.4776,4.5052,4.5052,0.0,0.0,4.5559,4.5559,4.5559,4.5559,4.5559,4.5559,4.5559,4.5577,4.5594,4.5594,4.5594,4.5594,4.5594,4.5594,4.5594,4.5594,4.5594,4.5457,4.4781,4.4593,4.4433,4.3695,4.3515,4.358,4.3881,4.3955,4.4061,4.4419,4.4223,4.3955,4.3955,4.371,4.3597,4.3893,4.3986,4.4117,4.4487,4.4849,4.5063,4.5096,4.5381,4.5559,4.5559,4.5681,4.5814,4.589,4.6005,4.6144,4.6269,4.6289,4.6289,4.6289,4.6289,4.6308,4.6308,4.6308,4.6308,4.6308,4.6308,4.6308,4.6308,4.6308,4.6308,3.6519,3.6563,3.6563,3.7304,3.7785,3.8355,3.9364,0.0,0.0,4.0002,4.0201,4.0558,4.1415,4.1572,0.0,0.0,0.0,0.0,0.0,0.0,0.0,0.0,0.0,0.0,0.0,0.0,0.0,0.0,0.0,0.0,4.3411,4.3451,4.3515,4.3515,4.3712,4.3865,4.4001,4.3732,4.3668,4.3812,4.3481,4.3346,4.3339,4.359,4.3761,4.3905,4.3905,0.0,0.0,4.4624,4.4528,4.4201,4.521,4.5287,4.4874,4.5421,4.5594,4.5594,4.5594,4.5594,4.5594,4.5594,4.5594,4.5594,4.5594,4.5594,4.5504,4.5022,4.4763,4.4474,4.3943,4.3804,4.3833,4.3971,4.4175,4.4419,4.4585,4.4276,4.4001,4.4001,4.3896,4.3833,4.3986,4.4368,4.4732,4.4884,4.5191,4.541,4.541,4.5513,4.5594,4.5594,4.573,4.5826,4.589,4.6011,4.6119,4.6174,4.6267,4.6268,4.6177,4.6268,4.6308,4.6308,4.6308,4.6308,4.6308,4.6308,4.6308,4.6308,4.6308,4.6308,3.5883,3.6333,3.6696,3.7373,3.8092,3.884,0.0,0.0,3.9576,3.9462,3.9645,4.0,4.0627,4.093,4.1535,0.0,0.0,0.0,0.0,0.0,0.0,0.0,0.0,0.0,0.0,0.0,0.0,0.0,0.0,0.0,0.0,4.2951,4.2959,4.3035,4.329,4.3474,4.3567,4.3221,4.3128,4.324,4.2857,4.269,4.269,4.297,4.3104,4.3104,0.0,0.0,0.0,4.3701,4.3605,4.322,4.4393,4.4489,4.4047,4.4902,4.5229,4.5248,4.5518,4.5594,4.5594,4.5594,4.5594,4.5594,4.5594,4.5594,4.5522,4.5201,4.4769,4.4373,4.4219,4.4087,4.4043,4.4257,4.4535,4.4788,4.4865,4.4521,4.4175,4.4175,4.4073,4.4028,4.4146,4.4688,4.5129,4.5232,4.5484,4.5657,4.5657,4.5685,4.5681,4.5657,4.575,4.5859,4.5894,4.6011,4.6117,4.617,4.6247,4.6268,4.6152,4.6247,4.6308,4.6308,4.6308,4.6308,4.6308,4.6308,4.6308,4.6308,4.6308,4.6308,3.5654,3.618,3.7041,3.8124,3.8796,3.9396,0.0,3.9939,3.9517,3.916,3.8898,3.8964,3.9753,4.0561,4.137,4.2176,0.0,0.0,0.0,0.0,0.0,0.0,0.0,0.0,0.0,0.0,0.0,0.0,0.0,0.0,0.0,4.1795,4.174,4.2002,4.2015,4.2167,4.251,4.2521,4.2718,4.3096,4.3096,4.3085,4.3085,4.3104,4.3104,0.0,0.0,0.0,0.0,4.3104,4.3104,4.3104,4.3124,4.3124,4.3201,4.4028,4.4316,4.4432,4.5306,4.5594,4.5594,4.5594,4.5594,4.5594,4.5594,4.5594,4.5522,4.5201,4.4574,4.4106,4.4487,4.4308,4.419,4.4919,4.5085,4.5191,4.5513,4.5074,4.4593,4.4593,4.4261,4.4136,4.4527,4.4884,4.5211,4.5531,4.5715,4.5796,4.5796,4.5855,4.5867,4.5816,4.5861,4.5899,4.5899,4.6011,4.617,4.6289,4.6308,4.6308,4.6308,4.6308,4.6308,4.6308,4.6308,4.6308,4.6308,4.6308,4.6308,4.6308,4.6308,4.6308,3.5426,3.6063,3.6692,3.739,3.8128,3.8859,3.9645,3.9527,3.9289,3.9414,3.905,3.8946,3.9753,3.9662,4.0084,4.1992,0.0,0.0,0.0,0.0,0.0,0.0,0.0,0.0,0.0,0.0,0.0,0.0,0.0,0.0,0.0,4.179,4.1822,4.1983,4.2219,4.2387,4.2502,4.2173,4.2087,4.22,4.1604,4.1324,4.1324,4.1324,0.0,0.0,0.0,0.0,0.0,4.197,4.1854,4.1439,4.2624,4.2739,4.2316,4.3162,4.347,4.3528,4.3797,4.3893,4.397,4.4528,4.4701,4.4816,4.5421,4.5594,4.5485,4.4919,4.4387,4.4028,4.4146,4.429,4.454,4.4988,4.5282,4.541,4.5273,4.4919,4.4514,4.4233,4.4304,4.446,4.458,4.5074,4.5502,4.5703,4.5763,4.5821,4.5866,4.5896,4.5885,4.5867,4.5896,4.5899,4.5899,4.6011,4.617,4.6289,4.6308,4.6308,4.6308,4.6308,4.6308,4.6308,4.6308,4.6308,4.6308,4.6308,4.6308,4.6308,4.6308,4.6308,0.0,3.6195,3.6956,3.75,3.832,3.9164,3.972,3.9583,3.9302,3.9389,3.9036,3.8854,3.935,3.9294,3.9735,4.1552,0.0,0.0,0.0,0.0,0.0,0.0,0.0,0.0,0.0,0.0,0.0,0.0,0.0,0.0,0.0,4.1153,4.1236,4.1434,4.1647,4.1743,4.1743,4.1453,4.1316,4.1296,4.0766,4.0496,4.0496,4.0496,0.0,0.0,0.0,0.0,0.0,4.1085,4.0989,4.0612,4.17,4.1797,4.1412,4.2297,4.2604,4.2662,4.2989,4.3104,4.3181,4.3682,4.3855,4.3951,4.4489,4.5094,4.5513,4.5088,4.4701,4.4436,4.4581,4.4701,4.4872,4.5211,4.5438,4.5504,4.518,4.4837,4.4527,4.4294,4.4433,4.4631,4.4776,4.5243,4.5651,4.5776,4.5814,4.5866,4.5967,4.6027,4.6036,4.5981,4.5978,4.5978,4.5978,4.6047,4.617,4.6289,4.6308,4.6308,4.6308,4.6308,4.6308,4.6308,4.6308,4.6308,4.6308,4.6247,4.6224,4.6224,4.6174,4.6147,0.0,3.6551,3.7565,3.8233,3.9155,3.9965,4.0225,3.9927,0.0,3.9199,3.8923,3.8738,3.8781,3.935,4.0118,4.1071,0.0,0.0,0.0,0.0,0.0,0.0,0.0,0.0,0.0,0.0,0.0,0.0,0.0,0.0,0.0,4.0129,4.0232,4.0489,4.0496,4.0496,4.0496,4.0496,4.0496,4.0496,4.0496,4.0496,4.0496,4.0496,0.0,0.0,0.0,0.0,0.0,4.0496,4.0496,4.0496,4.0496,4.0496,4.0593,4.1412,4.1712,4.1816,4.2624,4.2912,4.2931,4.2989,4.3047,4.3104,4.3104,4.4173,4.5395,4.5453,4.5227,4.5053,4.5466,4.5332,4.518,4.5495,4.5568,4.5457,4.5107,4.4793,4.458,4.4553,4.4593,4.4732,4.5055,4.5391,4.5657,4.5809,4.5876,4.5951,4.6108,4.6224,4.6248,4.614,4.6115,4.6115,4.6115,4.611,4.617,4.6289,4.6308,4.6308,4.6308,4.6308,4.6308,4.6308,4.6289,4.6289,4.6289,4.6147,4.6082,4.6082,4.5967,4.5899,3.6929,0.0,3.6931,3.8106,3.8578,3.9026,0.0,3.9864,0.0,0.0,0.0,3.9118,3.954,3.9276,0.0,0.0,0.0,0.0,0.0,0.0,0.0,0.0,0.0,0.0,0.0,0.0,0.0,0.0,0.0,0.0,0.0,4.0417,4.0422,4.0496,4.0496,4.0496,4.0496,4.0496,4.0496,4.0496,4.0496,4.0496,4.0496,4.0496,0.0,0.0,0.0,0.0,4.0496,4.0496,4.0496,4.0496,4.0496,4.0496,4.0516,4.0727,4.0804,4.0843,4.1035,4.1112,4.1227,4.1893,4.2566,4.3104,4.3104,4.3166,4.3377,4.4046,4.3984,4.3954,4.4957,4.5169,4.5118,4.5201,4.5222,4.5044,4.4395,4.4428,4.4514,4.419,4.46,4.5047,4.5227,4.5522,4.5821,4.5994,4.6036,4.611,4.6245,4.6289,4.6289,4.6267,4.6248,4.6248,4.6248,4.615,4.617,4.6289,4.6308,4.6308,4.6308,4.6308,4.6308,4.6308,4.62,4.6147,4.6147,4.6005,4.5959,4.5959,4.5912,4.5899,3.8071,3.7968,3.8044,3.8768,3.9338,3.9889,4.0506,0.0,0.0,0.0,0.0,0.0,3.9963,0.0,0.0,0.0,0.0,0.0,0.0,0.0,0.0,0.0,0.0,0.0,0.0,0.0,0.0,0.0,0.0,0.0,0.0,4.0496,4.0496,4.0496,4.0496,4.0496,4.0496,4.0496,4.0496,4.0496,4.0131,3.9958,3.9938,3.9534,3.9361,0.0,0.0,0.0,3.9977,4.0342,4.0496,4.0496,4.0496,4.0496,4.0496,4.0496,4.0496,4.0496,4.0496,4.0496,4.0573,4.1046,4.1527,4.1876,4.1756,4.1562,4.1654,4.2904,4.3493,4.3882,4.4402,4.4935,4.5302,4.5148,4.5222,4.514,4.4428,4.458,4.4769,4.4548,4.489,4.5256,4.5491,4.5706,4.5906,4.6075,4.6108,4.6147,4.6289,4.6308,4.6308,4.6308,4.6308,4.6308,4.6308,4.6226,4.6224,4.6308,4.6308,4.6308,4.6308,4.6308,4.6308,4.6308,4.6225,4.6152,4.6108,4.5971,4.5872,4.585,4.5795,4.5764,3.9187,3.97,4.0011,3.9737,4.0484,4.1284,0.0,0.0,0.0,0.0,0.0,0.0,0.0,0.0,0.0,0.0,0.0,0.0,0.0,0.0,0.0,0.0,0.0,0.0,0.0,0.0,0.0,0.0,0.0,0.0,0.0,4.0323,4.0265,4.0131,4.0131,4.0131,4.0131,4.0246,4.0323,4.0304,3.9496,3.9111,3.9092,3.8334,3.8007,3.8046,0.0,0.0,3.9169,3.9977,4.0323,4.0323,4.0458,4.0496,4.0496,4.0496,4.0496,4.0496,4.0496,4.0496,4.0496,4.0496,4.0496,4.0457,4.0177,4.0129,4.0435,4.1758,4.3053,4.4026,4.3962,4.4786,4.5513,4.518,4.5322,4.5352,4.4732,4.4861,4.5107,4.5131,4.5266,4.5488,4.5783,4.5896,4.5981,4.6113,4.612,4.6174,4.6289,4.6308,4.6308,4.6308,4.6308,4.6308,4.6308,4.6308,4.6308,4.6308,4.6308,4.6289,4.6268,4.6289,4.6289,4.6268,4.6268,4.6201,4.6075,4.5948,4.5845,4.5775,4.564,4.5594,4.02,4.137,4.1811,4.0374,4.0668,4.118,0.0,0.0,0.0,0.0,0.0,0.0,0.0,0.0,0.0,0.0,0.0,0.0,0.0,0.0,0.0,0.0,0.0,0.0,0.0,0.0,0.0,0.0,0.0,0.0,0.0,3.9477,3.915,3.8411,3.8373,3.8373,3.8373,3.913,3.9477,3.9477,3.8604,3.82,3.82,3.8065,3.8007,3.8007,0.0,3.82,3.8277,3.913,3.9477,3.9554,4.0227,4.0496,4.0496,4.0496,4.0496,4.0496,4.0496,4.0496,4.0496,4.0496,4.0496,4.0457,4.0177,4.0269,4.0386,4.0125,4.1407,4.3072,4.3998,4.4914,4.5513,4.518,4.5129,4.5074,4.4682,4.4861,4.5133,4.5256,4.5526,4.5782,4.6014,4.6067,4.6115,4.6247,4.6268,4.6288,4.6308,4.6308,4.6308,4.6308,4.6308,4.6308,4.6308,4.6308,4.6308,4.6308,4.6308,4.6247,4.6142,4.6246,4.6247,4.6122,4.612,4.6053,4.5924,4.5859,4.5749,4.5627,4.5612,4.5594,3.9547,4.1284,4.2573,4.1337,4.197,4.2868,0.0,0.0,0.0,0.0,0.0,0.0,0.0,0.0,0.0,0.0,0.0,0.0,0.0,0.0,0.0,0.0,0.0,0.0,0.0,0.0,0.0,0.0,0.0,0.0,0.0,0.0,3.8892,3.8027,3.8007,3.8007,3.8007,3.793,3.8123,3.8584,3.7719,3.7296,3.7276,3.6853,3.6654,3.6673,0.0,3.7296,3.7373,3.8238,3.8873,3.9342,3.9708,4.0112,4.0496,4.0496,4.0496,4.0496,4.0496,4.0496,4.0496,4.0496,4.0496,4.0414,3.9973,4.0033,4.0185,3.9724,4.0848,4.2353,4.3168,4.4141,4.4937,4.5065,4.5232,4.5292,4.4943,4.5186,4.5492,4.555,4.5772,4.5983,4.608,4.615,4.6225,4.6289,4.6308,4.6308,4.6308,4.6308,4.6308,4.6308,4.6308,4.6308,4.6308,4.6308,4.6308,4.6308,4.6308,4.6269,4.6202,4.6268,4.6268,4.6202,4.6202,4.6145,4.6001,4.5896,4.5789,4.5708,4.5627,4.5594,3.9049,4.0799,4.2431,0.0,0.0,0.0,0.0,0.0,0.0,0.0,0.0,0.0,0.0,0.0,0.0,0.0,0.0,0.0,0.0,0.0,0.0,0.0,0.0,0.0,0.0,0.0,0.0,0.0,0.0,0.0,0.0,0.0,3.8296,3.745,3.7411,3.7411,3.7411,3.675,3.6846,3.77,3.6827,3.6423,3.6404,3.5788,3.55,3.5538,3.6154,3.6423,3.6481,3.7334,3.8084,3.8719,3.915,3.9785,4.0496,4.0496,4.0496,4.0496,4.0496,4.0496,4.0496,4.0496,4.0496,4.0406,3.9882,3.9943,4.0139,3.9808,4.0578,4.164,4.224,4.3214,4.4119,4.4536,4.4834,4.5003,4.4938,4.506,4.5267,4.5498,4.5519,4.5586,4.5792,4.5932,4.6055,4.6269,4.6308,4.6308,4.6308,4.6308,4.6308,4.6308,4.6308,4.6308,4.6308,4.6308,4.6308,4.6308,4.6308,4.6289,4.6248,4.6289,4.6289,4.6248,4.6289,4.6223,4.6047,4.5985,4.5891,4.5754,4.5688,4.5627,3.9742,4.0519,4.1054,4.2624,0.0,0.0,0.0,0.0,0.0,0.0,0.0,0.0,0.0,0.0,0.0,0.0,0.0,0.0,0.0,0.0,0.0,0.0,0.0,0.0,0.0,0.0,0.0,0.0,0.0,0.0,0.0,0.0,0.0,3.5712,3.5673,3.5673,3.5673,3.5615,3.5981,3.6769,3.5962,3.5596,3.5577,3.5538,3.55,3.55,3.5558,3.5596,3.5654,3.6462,3.6827,3.7038,3.8661,3.9785,4.0496,4.0496,4.0496,4.0496,4.0496,4.0496,4.0496,4.0496,4.0496,4.0449,4.0158,4.025,4.0406,4.0148,4.0325,4.0796,4.1638,4.2511,4.3201,4.3233,4.3269,4.3489,4.4203,4.3844,4.3658,4.4594,4.4234,4.4053,4.492,4.5098,4.5371,4.6172,4.6308,4.6308,4.6308,4.6308,4.6308,4.6308,4.6308,4.6308,4.6308,4.6308,4.6308,4.6308,4.6308,4.6247,4.6117,4.6226,4.6246,4.6117,4.6245,4.6174,4.5912,4.6033,4.5929,4.562,4.5725,4.5723,3.7873,3.9681,4.1335,4.145,0.0,0.0,0.0,0.0,0.0,0.0,0.0,0.0,0.0,0.0,0.0,0.0,0.0,0.0,0.0,0.0,0.0,0.0,0.0,0.0,0.0,0.0,0.0,0.0,0.0,0.0,0.0,0.0,0.0,3.5538,3.55,3.55,3.55,3.55,3.5654,3.5942,3.5654,3.55,3.55,3.55,3.55,3.55,3.55,3.55,3.5519,3.5827,3.625,3.6808,3.8027,3.9008,3.9746,3.9746,4.0073,4.0496,4.0496,4.0496,4.0496,4.0496,4.0496,4.0457,4.0177,4.0295,4.043,4.0177,4.0285,4.0708,4.1566,4.2038,4.2431,4.297,4.3104,4.3181,4.3489,4.3427,4.3447,4.3824,4.3773,4.3766,4.4121,4.4199,4.4297,4.4629,4.5137,4.5488,4.5488,4.5957,4.6308,4.6308,4.6308,4.6308,4.6308,4.6308,4.6308,4.6308,4.6308,4.6288,4.6224,4.6269,4.6288,4.6224,4.6269,4.6247,4.6147,4.6036,4.5918,4.5782,4.5706,4.5651,3.745,3.9411,4.1373,0.0,0.0,0.0,0.0,0.0,0.0,0.0,0.0,0.0,0.0,0.0,0.0,0.0,0.0,0.0,0.0,0.0,0.0,0.0,0.0,0.0,0.0,0.0,0.0,0.0,0.0,0.0,0.0,0.0,0.0,0.0,3.55,3.55,3.55,3.55,3.55,3.55,3.55,3.55,3.55,3.55,3.55,3.55,3.55,3.55,3.55,3.55,3.5962,3.675,3.7353,3.8296,3.9304,3.9304,3.9804,4.0496,4.0496,4.0496,4.0496,4.0496,4.0496,4.0465,4.0267,4.0356,4.0465,4.0286,4.0356,4.065,4.1239,4.1393,4.1546,4.2143,4.2277,4.2354,4.2624,4.2633,4.2669,4.2937,4.2953,4.2988,4.3242,4.3281,4.3379,4.3652,4.4219,4.459,4.459,4.5117,4.5586,4.5859,4.6133,4.6308,4.6308,4.6308,4.6308,4.6308,4.6308,4.6308,4.6308,4.6308,4.6308,4.6308,4.6308,4.6289,4.6245,4.6106,4.5971,4.5876,4.5751,4.5669,3.9034,3.9881,0.0,0.0,0.0,0.0,0.0,0.0,0.0,0.0,0.0,0.0,0.0,0.0,0.0,0.0,0.0,0.0,0.0,0.0,0.0,0.0,0.0,0.0,0.0,0.0,0.0,0.0,0.0,0.0,0.0,0.0,0.0,0.0,3.55,3.5481,3.5481,3.5481,3.5481,3.5481,3.5481,3.5481,3.55,3.55,3.55,3.55,3.55,3.55,3.55,3.55,3.5962,3.6692,3.6692,3.7757,3.9284,3.9284,3.9785,4.0477,4.0477,4.0477,4.0477,4.0477,4.0477,4.0496,4.0496,4.0496,4.0496,4.0496,4.0496,4.0496,4.0496,4.0496,4.0496,4.0496,4.0496,4.0746,4.1604,4.1271,4.107,4.1921,4.1605,4.1445,4.2246,4.2383,4.2676,4.3555,4.3672,4.3691,4.3691,4.3691,4.4023,4.4902,4.5762,4.6289,4.6308,4.6308,4.6308,4.6308,4.6308,4.6308,4.6308,4.6308,4.6308,4.6308,4.6308,4.6226,4.6091,4.6226,4.6126,4.5809,4.5862,4.5788,3.7411,0.0,0.0,0.0,0.0,0.0,0.0,0.0,0.0,0.0,0.0,0.0,0.0,0.0,0.0,0.0,0.0,0.0,0.0,0.0,0.0,0.0,0.0,0.0,0.0,0.0,0.0,0.0,0.0,0.0,0.0,0.0,0.0,0.0,3.5173,3.4904,3.368,3.4276,3.4276,3.368,3.4295,3.4911,3.55,3.55,3.55,3.55,3.55,3.55,3.55,3.55,3.5635,3.5865,3.5865,3.6519,3.7469,3.7469,3.8007,3.8738,3.8738,3.8738,3.8738,3.8738,3.9169,3.9669,3.9669,4.0054,4.0496,4.0496,4.0496,4.0496,4.0496,4.0496,4.0496,4.0496,4.0496,4.0573,4.0843,4.0851,4.0875,4.1147,4.1197,4.1289,4.1504,4.1562,4.1641,4.1894,4.2422,4.3008,4.3613,4.3691,4.4023,4.4902,4.5234,4.5625,4.625,4.6308,4.6308,4.6308,4.6308,4.6308,4.6308,4.6308,4.6308,4.6308,4.6308,4.6289,4.6246,4.6196,4.6064,4.5862,4.5842,4.5756,3.8927,0.0,0.0,0.0,0.0,0.0,0.0,0.0,0.0,0.0,0.0,0.0,0.0,0.0,0.0,0.0,0.0,0.0,0.0,0.0,0.0,0.0,0.0,0.0,0.0,0.0,0.0,0.0,0.0,0.0,0.0,0.0,0.0,3.3699,3.4199,3.3968,3.291,3.341,3.341,3.291,3.343,3.4141,3.5007,3.5346,3.55,3.55,3.55,3.55,3.55,3.55,3.55,3.55,3.55,3.5981,3.6692,3.6692,3.7257,3.8046,3.8392,3.8296,3.8065,3.8392,3.8873,3.9304,3.9304,3.9861,4.0496,4.0496,4.0496,4.0496,4.0496,4.0496,4.0496,4.0496,4.0496,4.0519,4.0574,4.0696,4.0813,4.0867,4.1052,4.1191,4.1191,4.1191,4.1191,4.1191,4.1601,4.2109,4.2637,4.2988,4.3379,4.3906,4.4277,4.4844,4.5703,4.5781,4.5937,4.6289,4.6308,4.6308,4.6308,4.6308,4.6308,4.6308,4.6308,4.6308,4.6308,4.6171,4.6036,4.5899,4.5838,4.5737,0.0,0.0,0.0,0.0,0.0,0.0,0.0,0.0,0.0,0.0,0.0,0.0,0.0,0.0,0.0,0.0,0.0,0.0,0.0,0.0,0.0,0.0,0.0,0.0,0.0,0.0,0.0,0.0,0.0,0.0,0.0,0.0,3.368,3.2814,3.2852,3.2833,3.2679,3.2756,3.2756,3.2679,3.2756,3.3199,3.3994,3.4949,3.5423,3.55,3.55,3.55,3.55,3.55,3.55,3.55,3.55,3.5942,3.6596,3.6596,3.7084,3.7892,3.8681,3.843,3.7892,3.87,3.8996,3.9092,3.9169,3.9746,4.0419,4.0477,4.0496,4.0496,4.0496,4.0496,4.0496,4.0496,4.0496,4.0549,4.0667,4.0752,4.0847,4.0966,4.1105,4.1191,4.1191,4.1191,4.1191,4.1191,4.1191,4.1191,4.1191,4.1836,4.2324,4.2383,4.3105,4.3965,4.4922,4.5,4.5371,4.623,4.6308,4.6308,4.6308,4.6308,4.6308,4.6308,4.6308,4.6289,4.6289,4.615,4.603,4.5881,4.5832,4.5737,0.0,0.0,0.0,0.0,0.0,0.0,0.0,0.0,0.0,0.0,0.0,0.0,0.0,0.0,0.0,0.0,0.0,0.0,0.0,0.0,0.0,0.0,0.0,0.0,0.0,0.0,0.0,0.0,0.0,0.0,0.0,0.0,3.2795,3.1987,3.2564,3.2275,3.0942,3.1621,3.1621,0.0,3.1641,3.2064,3.2295,3.3795,3.4853,3.55,3.55,3.55,3.55,3.55,3.55,3.55,3.55,3.5615,3.575,3.575,3.5885,3.6058,3.625,3.6192,3.6077,3.625,3.6731,3.7392,3.8065,3.8873,3.9688,4.0323,4.0496,4.0496,4.0496,4.0496,4.0496,4.0496,4.0496,4.0549,4.0667,4.0752,4.0847,4.0966,4.1105,4.1191,4.1191,4.1191,4.1191,4.1191,4.1191,4.1191,4.1191,4.1348,4.1699,4.2324,4.2578,4.3301,4.4863,4.5,4.5371,4.623,4.6308,4.6308,4.6308,4.6308,4.6308,4.6308,4.6308,4.6247,4.6145,4.6115,4.6001,4.5814,4.5816,4.5737,0.0,0.0,0.0,0.0,0.0,0.0,0.0,0.0,0.0,0.0,0.0,0.0,0.0,0.0,0.0,0.0,0.0,0.0,0.0,0.0,0.0,0.0,0.0,0.0,0.0,0.0,0.0,0.0,0.0,0.0,0.0,3.2564,3.1948,3.1096,3.1481,3.1269,3.0404,3.0846,3.0846,3.0404,3.0865,3.1288,3.1756,3.343,3.4449,3.4911,3.5327,3.55,3.55,3.55,3.55,3.55,3.55,3.55,3.55,3.55,3.55,3.5558,3.5942,3.5827,3.5558,3.5942,3.6365,3.6769,3.7238,3.8277,3.9304,3.9304,3.9881,4.0419,4.0035,4.0208,4.0496,4.0496,4.0545,4.0617,4.0736,4.084,4.0947,4.1077,4.115,4.1191,4.1191,4.1191,4.1191,4.1191,4.1191,4.1191,4.1191,4.1191,4.1367,4.1777,4.1836,4.2344,4.3652,4.3769,4.4316,4.5605,4.5683,4.5859,4.6289,4.6308,4.6308,4.6308,4.6308,4.6226,4.6108,4.6036,4.5938,4.5796,4.5725,4.5665,0.0,0.0,0.0,0.0,0.0,0.0,0.0,0.0,0.0,0.0,0.0,0.0,0.0,0.0,0.0,0.0,0.0,0.0,0.0,0.0,0.0,0.0,0.0,0.0,0.0,0.0,0.0,0.0,0.0,0.0,3.1737,3.1564,3.1154,3.0423,3.0404,3.0404,3.0404,3.0404,3.0404,3.0404,3.0404,3.0788,3.1525,3.3064,3.384,3.4013,3.4737,3.5058,3.5058,3.5212,3.5269,3.5288,3.5442,3.55,3.55,3.55,3.55,3.5596,3.625,3.6058,3.5615,3.6269,3.6481,3.6538,3.6846,3.793,3.8957,3.8392,3.9219,4.015,3.9477,3.9688,4.0112,4.0265,4.0391,4.0557,4.0762,4.0911,4.1049,4.1171,4.1191,4.1191,4.1191,4.1191,4.1191,4.1191,4.1191,4.1191,4.1191,4.1171,4.1171,4.1191,4.1171,4.1503,4.2324,4.2402,4.3086,4.4668,4.4922,4.5312,4.6055,4.6211,4.6308,4.6308,4.6288,4.62,4.6072,4.5948,4.5839,4.5768,4.564,4.5594,0.0,0.0,0.0,0.0,0.0,0.0,0.0,0.0,0.0,0.0,0.0,0.0,0.0,0.0,0.0,0.0,0.0,0.0,0.0,0.0,0.0,0.0,0.0,0.0,0.0,0.0,0.0,0.0,0.0,0.0,3.1718,3.0981,3.0519,3.0404,3.0404,3.0404,3.0404,3.0404,3.0404,3.0404,3.0404,3.0462,3.0615,3.1583,3.241,3.3083,3.3199,3.3256,3.3314,3.4064,3.4379,3.4449,3.5212,3.55,3.55,3.55,3.55,3.5519,3.5615,3.5596,3.5519,3.5635,3.5654,3.5923,3.7392,3.7988,3.8315,3.8957,3.9284,3.9438,3.9323,3.8815,3.8527,3.9284,3.9613,3.9929,4.0642,4.0911,4.1049,4.1171,4.1191,4.1191,4.1191,4.1191,4.1191,4.1191,4.1191,4.1191,4.1191,4.1103,4.1077,4.1191,4.1102,4.1391,4.2324,4.2402,4.2812,4.3808,4.457,4.5058,4.5176,4.5898,4.6308,4.6308,4.6196,4.605,4.5924,4.5853,4.5742,4.5637,4.5603,4.5594,0.0,0.0,0.0,0.0,0.0,0.0,0.0,0.0,0.0,0.0,0.0,0.0,0.0,0.0,0.0,0.0,0.0,0.0,0.0,0.0,0.0,0.0,0.0,0.0,0.0,0.0,0.0,0.0,0.0,3.0962,3.0962,3.0615,3.0404,3.0404,3.0404,3.0404,3.0404,3.0404,3.0404,3.0404,3.0404,3.0404,3.0404,3.0808,3.1423,3.2256,3.2699,3.2891,3.2968,3.384,3.4205,3.4282,3.5154,3.55,3.55,3.55,3.55,3.55,3.55,3.55,3.55,3.55,3.55,3.5635,3.6385,3.6911,3.7353,3.7738,3.8546,3.9188,3.87,3.8969,3.9268,3.8749,3.9136,3.9703,4.0103,4.067,4.1104,4.1082,4.1025,4.0986,4.0986,4.0986,4.0986,4.0986,4.0986,4.0986,4.0986,4.0922,4.0914,4.0964,4.092,4.1086,4.1568,4.1629,4.2005,4.291,4.3789,4.4492,4.498,4.584,4.6268,4.6198,4.612,4.6036,4.5899,4.5825,4.5725,4.5594,4.5594,4.5594,0.0,0.0,0.0,0.0,0.0,0.0,0.0,0.0,0.0,0.0,0.0,0.0,0.0,0.0,0.0,0.0,0.0,0.0,0.0,0.0,0.0,0.0,0.0,0.0,0.0,0.0,0.0,0.0,0.0,3.0404,3.0404,3.0404,3.0404,3.0404,3.0404,3.0404,3.0404,3.0404,3.0404,3.0404,3.0404,3.0404,3.0404,3.0404,3.075,3.1404,3.2006,3.2256,3.2333,3.3199,3.3571,3.366,3.4757,3.5173,3.5192,3.5423,3.55,3.55,3.55,3.55,3.55,3.55,3.55,3.5538,3.5731,3.6212,3.675,3.6962,3.7969,3.8873,3.843,3.9084,3.9579,3.8373,3.8864,3.9613,3.9694,4.0454,4.1105,4.0986,4.0867,4.0797,4.0797,4.0797,4.0797,4.0797,4.0797,4.0797,4.0797,4.0792,4.0788,4.0797,4.0773,4.0821,4.0947,4.0955,4.1246,4.1942,4.3042,4.3941,4.4579,4.5659,4.6196,4.6047,4.6024,4.5979,4.5872,4.5796,4.5692,4.5594,4.5594,4.5594,0.0,0.0,0.0,0.0,0.0,0.0,0.0,0.0,0.0,0.0,0.0,0.0,0.0,0.0,0.0,0.0,0.0,0.0,0.0,0.0,0.0,0.0,0.0,0.0,0.0,0.0,0.0,0.0,0.0,3.0404,3.0404,3.0404,3.0404,3.0404,3.0404,3.0404,3.0404,3.0404,3.0404,3.0404,3.0404,3.0404,3.0404,3.0404,3.0423,3.0462,3.0519,3.0538,3.0596,3.1468,3.1833,3.1987,3.3622,3.4263,3.4379,3.5192,3.55,3.55,3.55,3.55,3.55,3.55,3.55,3.5635,3.6404,3.6673,3.6865,3.77,3.8007,3.8257,3.9034,3.8681,3.8108,3.8102,3.8874,3.9623,3.9694,4.0391,4.0964,4.0847,4.0801,4.0797,4.0797,4.0797,4.0797,4.0797,4.0797,4.0797,4.0797,4.0738,4.0726,4.0789,4.0732,4.0731,4.0797,4.0805,4.0828,4.0875,4.2593,4.3573,4.3487,4.5164,4.6045,4.5912,4.5847,4.5803,4.5796,4.568,4.5603,4.5594,4.5594,4.5594,0.0,0.0,0.0,0.0,0.0,0.0,0.0,0.0,0.0,0.0,0.0,0.0,0.0,0.0,0.0,0.0,0.0,0.0,0.0,0.0,0.0,0.0,0.0,0.0,0.0,0.0,0.0,0.0,0.0,0.0,3.0404,3.0404,3.0404,3.0404,3.0404,3.0404,3.0404,3.0404,3.0404,3.0404,3.0404,3.0404,3.0404,3.0404,3.0404,3.0404,3.0404,3.0404,3.0462,3.1346,3.1698,3.1872,3.3551,3.4205,3.4321,3.5173,3.55,3.55,3.55,3.55,3.55,3.55,3.55,3.5558,3.5846,3.6288,3.6769,3.7084,3.7565,3.8065,3.8373,3.8642,3.8875,3.9029,3.9379,3.9669,3.9643,4.0283,4.0843,4.0747,4.0665,4.0617,4.0617,4.0617,4.0617,4.0617,4.0617,4.0617,4.0617,4.0584,4.0582,4.061,4.0596,4.061,4.0726,4.0736,4.0757,4.0793,4.1967,4.287,4.3369,4.4557,4.5406,4.583,4.5809,4.5803,4.5803,4.5665,4.5594,4.5594,4.5594,4.5594,0.0,0.0,0.0,0.0,0.0,0.0,0.0,0.0,0.0,0.0,0.0,0.0,0.0,0.0,0.0,0.0,0.0,0.0,0.0,0.0,0.0,0.0,0.0,0.0,0.0,0.0,0.0,0.0,0.0,0.0,3.0404,3.0404,3.0404,3.0404,3.0404,3.0404,3.0404,3.0404,3.0404,3.0404,3.0404,3.0404,3.0404,3.0404,3.0404,3.0404,3.0404,3.0404,3.0442,3.1019,3.125,3.1423,3.3103,3.3763,3.3891,3.5077,3.55,3.55,3.55,3.55,3.55,3.55,3.55,3.55,3.55,3.5865,3.6346,3.6615,3.7334,3.8065,3.8354,3.8908,3.9493,3.9904,3.985,3.9741,3.9932,4.0388,4.0742,4.0649,4.0566,4.0496,4.0496,4.0496,4.0496,4.0496,4.0496,4.0496,4.0496,4.0496,4.0496,4.0496,4.0496,4.0549,4.063,4.0636,4.0648,4.0692,4.1816,4.2714,4.3278,4.4437,4.5287,4.5713,4.5725,4.5725,4.5725,4.5643,4.5594,4.5594,4.5594,4.5594,0.0,0.0,0.0,0.0,0.0,0.0,0.0,0.0,0.0,0.0,0.0,0.0,0.0,0.0,0.0,0.0,0.0,0.0,0.0,0.0,0.0,0.0,0.0,0.0,0.0,0.0,0.0,0.0,0.0,3.0404,3.0404,3.0404,3.0404,3.0404,3.0404,3.0404,3.0404,3.0404,3.0404,3.0404,3.0404,3.0404,3.0404,3.0404,3.0404,3.0404,3.0404,3.0404,3.0404,3.0404,3.0404,3.0558,3.2218,3.2872,3.3103,3.4827,3.5481,3.55,3.55,3.55,3.55,3.55,3.55,3.55,3.55,3.5519,3.5692,3.6442,3.7315,3.82,3.908,3.9478,3.9836,4.0603,4.024,3.9903,4.0565,4.0697,4.0668,4.0534,4.0496,4.0496,4.0496,4.0496,4.0496,4.0496,4.0496,4.0496,4.0496,4.0496,4.0496,4.0496,4.0496,4.0496,4.0496,4.0496,4.0496,4.0496,4.2163,4.3143,4.3094,4.481,4.5706,4.5594,4.5594,4.5594,4.5594,4.5594,4.5594,4.5594,4.5594,4.5594,3.3275,0.0,0.0,0.0,0.0,0.0,0.0,0.0,0.0,0.0,0.0,0.0,0.0,0.0,0.0,0.0,0.0,0.0,0.0,0.0,0.0,0.0,0.0,0.0,0.0,0.0,0.0,0.0,3.0404,3.0404,3.0404,3.0404,3.0404,3.0404,3.0404,3.0404,3.0404,3.0404,3.0404,3.0404,3.0404,3.0404,3.0404,3.0404,3.0404,3.0404,3.0404,3.0404,3.0404,3.0404,3.0404,3.0519,3.1602,3.2391,3.3026,3.4141,3.4968,3.55,3.55,3.55,3.55,3.55,3.55,3.55,3.55,3.5904,3.6288,3.5923,3.6892,3.8217,3.9123,3.9912,4.0525,4.0758,4.0645,4.0529,4.066,4.063,4.0537,4.0504,4.0496,4.0496,4.0496,4.0496,4.0496,4.0496,4.0496,4.0496,4.0496,4.0496,4.0496,4.0496,4.0496,4.0496,4.0496,4.0496,4.0496,4.0496,4.157,4.2456,4.3066,4.4152,4.498,4.5594,4.5594,4.5594,4.5594,4.5594,4.5594,4.5594,4.5594,4.5594,0.0,0.0,0.0,0.0,0.0,0.0,0.0,0.0,0.0,0.0,0.0,0.0,0.0,0.0,0.0,0.0,0.0,0.0,0.0,0.0,0.0,0.0,0.0,0.0,0.0,0.0,0.0,3.0981,3.0615,3.0404,3.0404,3.0404,3.0404,3.0404,3.0404,3.0404,3.0404,3.0404,3.0404,3.0404,3.0404,3.0404,3.0404,3.0404,3.0404,3.0404,3.0404,3.0404,3.0404,3.0404,3.0404,3.0519,3.1737,3.2275,3.2583,3.416,3.4834,3.5007,3.5365,3.55,3.55,3.55,3.55,3.55,3.55,3.5827,3.6096,3.5635,3.6719,3.8225,3.9222,4.0116,4.0776,4.0789,4.0784,4.0727,4.0636,4.0552,4.0496,4.0496,4.0496,4.0496,4.0496,4.0496,4.0496,4.0496,4.0496,4.0496,4.0496,4.0496,4.0496,4.0496,4.0496,4.0496,4.0496,4.0496,4.0496,4.0496,4.1662,4.2566,4.3085,4.422,4.5075,4.5594,4.5594,4.5594,4.5594,4.5594,4.5594,4.5594,4.5594,4.5594,0.0,0.0,0.0,0.0,0.0,0.0,3.7187,3.6823,0.0,0.0,0.0,0.0,0.0,0.0,0.0,0.0,0.0,0.0,0.0,0.0,0.0,0.0,0.0,0.0,0.0,3.2852,3.191,3.1718,3.0885,3.0404,3.0404,3.0404,3.0404,3.0404,3.0404,3.0404,3.0404,3.0404,3.0404,3.0404,3.0404,3.0404,3.0404,3.0404,3.0404,3.0404,3.0404,3.0404,3.0404,3.0404,3.0404,3.0558,3.2045,3.2237,3.1987,3.4346,3.4776,3.4321,3.5192,3.55,3.55,3.55,3.55,3.55,3.55,3.55,3.5519,3.5615,3.6776,3.8253,3.9304,4.0146,4.0713,4.0775,4.0738,4.0655,4.0534,4.0496,4.0496,4.0496,4.0496,4.0496,4.0496,4.0496,4.0496,4.0496,4.0496,4.0496,4.0496,4.0496,4.0496,4.0496,4.0496,4.0496,4.0496,4.0496,4.0496,4.0496,4.2047,4.3008,4.3104,4.4624,4.5498,4.5594,4.5594,4.5594,4.5594,4.5594,4.5594,4.5594,4.5594,4.5594,0.0,0.0,0.0,0.0,0.0,0.0,0.0,3.5244,0.0,0.0,0.0,0.0,0.0,0.0,0.0,0.0,0.0,0.0,0.0,0.0,0.0,0.0,0.0,0.0,0.0,3.3898,3.3141,3.1795,3.0885,3.0404,3.0404,3.0404,3.0404,3.0404,3.0404,3.0404,3.0404,3.0404,3.0404,3.0404,3.0404,3.0404,3.0404,3.0404,3.0404,3.0404,3.0404,3.0404,3.0404,3.0404,3.0404,3.0423,3.0769,3.1212,3.1833,3.2987,3.3737,3.4321,3.5192,3.55,3.55,3.55,3.55,3.55,3.55,3.55,3.5635,3.6269,3.7219,3.8218,3.9185,4.0073,4.0703,4.0718,4.0701,4.0655,4.0534,4.0496,4.0496,4.0496,4.0496,4.0496,4.0496,4.0496,4.0496,4.0496,4.0496,4.0496,4.0496,4.0496,4.0496,4.0496,4.0496,4.0496,4.0496,4.0496,4.0496,4.0496,4.1489,4.2374,4.3066,4.4047,4.4874,4.5594,4.5594,4.5594,4.5594,4.5594,4.5594,4.5594,4.5594,4.5594,0.0,0.0,0.0,3.5304,0.0,0.0,0.0,0.0,0.0,0.0,0.0,0.0,0.0,0.0,0.0,0.0,0.0,0.0,0.0,0.0,0.0,0.0,0.0,0.0,0.0,3.468,3.3667,3.2391,3.1519,3.1058,3.1058,3.0635,3.0404,3.0404,3.0404,3.0404,3.0404,3.0404,3.0404,3.0404,3.0404,3.0404,3.0404,3.0404,3.0404,3.0404,3.0404,3.0404,3.0404,3.0404,3.0404,3.0442,3.0885,3.1058,3.1192,3.2449,3.3179,3.368,3.4545,3.5135,3.55,3.55,3.55,3.55,3.55,3.55,3.5577,3.5981,3.7026,3.8115,3.8661,3.9701,4.0616,4.068,4.0655,4.0575,4.0519,4.0496,4.0496,4.0496,4.0496,4.0496,4.0496,4.0496,4.0496,4.0496,4.0496,4.0496,4.0496,4.0496,4.0496,4.0496,4.0496,4.0496,4.0496,4.0496,4.0496,4.0496,4.1316,4.22,4.3066,4.3874,4.4701,4.5575,4.5594,4.5594,4.5594,4.5594,4.5594,4.5594,4.5594,4.5594,0.0,0.0,0.0,0.0,0.0,3.5286,0.0,0.0,0.0,3.5496,0.0,0.0,0.0,0.0,0.0,0.0,0.0,0.0,0.0,0.0,0.0,0.0,0.0,0.0,0.0,3.5057,3.3832,3.3199,3.2256,3.1775,3.1929,3.1115,3.0654,3.0654,3.0481,3.0404,3.0404,3.0404,3.0404,3.0404,3.0404,3.0404,3.0404,3.0404,3.0404,3.0404,3.0404,3.0404,3.0404,3.0404,3.0404,3.0462,3.1173,3.1019,3.0596,3.2275,3.2891,3.3045,3.4083,3.4911,3.55,3.55,3.55,3.55,3.55,3.55,3.55,3.55,3.6719,3.8024,3.8123,3.9321,4.0534,4.0643,4.0588,4.0496,4.0496,4.0496,4.0496,4.0496,4.0496,4.0496,4.0496,4.0496,4.0496,4.0496,4.0496,4.0496,4.0496,4.0496,4.0496,4.0496,4.0496,4.0496,4.0496,4.0496,4.0496,4.0496,4.1162,4.2027,4.3066,4.4028,4.4874,4.5594,4.555,4.555,4.5594,4.555,4.555,4.5594,4.5594,4.5594,0.0,0.0,0.0,0.0,3.5656,0.0,0.0,0.0,3.2947,3.3018,0.0,0.0,0.0,0.0,0.0,0.0,0.0,0.0,0.0,0.0,0.0,0.0,0.0,0.0,0.0,0.0,3.3842,3.4038,3.2583,3.2006,3.2737,3.1987,3.1545,3.1545,3.0808,3.0404,3.0404,3.0404,3.0404,3.0404,3.0404,3.0404,3.0404,3.0404,3.0404,3.0404,3.0404,3.0404,3.0404,3.0404,3.0404,3.0404,3.0519,3.0481,3.0596,3.2275,3.2891,3.3141,3.4769,3.5423,3.55,3.55,3.55,3.55,3.55,3.55,3.55,3.55,3.6719,3.7995,3.8017,3.9261,4.0504,4.0527,4.0512,4.0496,4.0496,4.0496,4.0496,4.0496,4.0496,4.0496,4.0496,4.0496,4.0496,4.0496,4.0496,4.0496,4.0496,4.0496,4.0496,4.0496,4.0496,4.0496,4.0496,4.0496,4.0496,4.0496,4.0593,4.1401,4.3028,4.4605,4.5498,4.5594,4.5312,4.5312,4.5594,4.5302,4.5312,4.5594,4.5594,4.5594,0.0,0.0,0.0,0.0,0.0,0.0,0.0,0.0,3.2785,0.0,0.0,0.0,0.0,0.0,0.0,0.0,0.0,0.0,0.0,0.0,0.0,0.0,0.0,0.0,0.0,0.0,0.0,0.0,3.3372,3.2756,3.3603,3.241,3.1698,3.1698,3.0846,3.0404,3.0404,3.0404,3.0404,3.0404,3.0404,3.0404,3.0404,3.0404,3.0404,3.0404,3.0404,3.0404,3.0404,3.0404,3.0404,3.0404,3.0404,3.0404,3.0558,3.1756,3.2506,3.3083,3.4314,3.5084,3.55,3.55,3.55,3.55,3.55,3.55,3.5596,3.6058,3.7065,3.8123,3.8623,3.9631,4.0496,4.0496,4.0496,4.0496,4.0496,4.0496,4.0496,4.0496,4.0496,4.0496,4.0496,4.0496,4.0496,4.0496,4.0496,4.0496,4.0496,4.0496,4.0496,4.0496,4.0496,4.0496,4.0496,4.0496,4.0496,4.0496,4.1458,4.2159,4.2508,4.4313,4.5222,4.5022,4.4884,4.4884,4.5022,4.4884,4.4884,4.5022,4.5222,4.5211,3.55,0.0,0.0,0.0,0.0,0.0,0.0,0.0,0.0,0.0,0.0,0.0,0.0,0.0,0.0,0.0,0.0,0.0,0.0,0.0,0.0,0.0,0.0,0.0,0.0,0.0,0.0,0.0,0.0,3.3372,3.4507,3.3179,3.2275,3.2045,3.1192,3.0635,3.0404,3.0404,3.0404,3.0404,3.0404,3.0404,3.0404,3.0404,3.0404,3.0404,3.0404,3.0404,3.0404,3.0404,3.0404,3.0404,3.0404,3.0404,3.0538,3.1641,3.2391,3.3064,3.416,3.4968,3.55,3.55,3.55,3.55,3.55,3.5654,3.5942,3.6538,3.7507,3.8507,3.915,3.99,4.0496,4.0496,4.0496,4.0496,4.0496,4.0496,4.0496,4.0496,4.0496,4.0496,4.0496,4.0496,4.0496,4.0496,4.0496,4.0496,4.0496,4.0496,4.0496,4.0496,4.0496,4.0496,4.0496,4.0422,4.0345,4.0257,4.1876,4.2609,4.2121,4.3945,4.4849,4.4593,4.4487,4.4487,4.4593,4.4487,4.4447,4.4447,4.4793,4.4837,0.0,0.0,0.0,3.5493,0.0,0.0,0.0,0.0,3.1672,0.0,0.0,0.0,0.0,0.0,0.0,0.0,0.0,0.0,0.0,0.0,0.0,0.0,0.0,0.0,0.0,0.0,0.0,0.0,0.0,0.0,3.5365,3.4603,3.3725,3.2891,3.2083,3.125,3.0404,3.0404,3.0404,3.0404,3.0404,3.0404,3.0404,3.0404,3.0404,3.0404,3.0404,3.0404,3.0404,3.0404,3.0404,3.0404,3.0404,3.0404,3.0596,3.2256,3.2872,3.3141,3.4865,3.5481,3.55,3.55,3.55,3.55,3.55,3.6038,3.6673,3.6692,3.793,3.9265,3.9284,3.99,4.0496,4.0496,4.0496,4.0496,4.0496,4.0496,4.0496,4.0496,4.0496,4.0496,4.0496,4.0496,4.0496,4.0496,4.0496,4.0496,4.0496,4.0496,4.0496,4.0496,4.0496,4.0496,4.0496,4.025,3.9963,3.9645,4.1189,4.2121,4.2108,4.3725,4.4606,4.4593,4.4219,4.4204,4.4593,4.4204,4.4031,4.4028,4.4433,4.4606,0.0,0.0,3.5453,3.5281,0.0,0.0,0.0,0.0,0.0,0.0,0.0,0.0,0.0,0.0,0.0,0.0,0.0,0.0,0.0,0.0,0.0,0.0,0.0,0.0,0.0,0.0,0.0,0.0,3.3564,0.0,0.0,3.4661,3.4071,3.3782,3.2429,3.1564,3.125,3.0692,3.0404,3.0404,3.0404,3.0404,3.0404,3.0404,3.0404,3.0404,3.0404,3.0404,3.0404,3.0404,3.0404,3.0404,3.0404,3.075,3.1327,3.191,3.2449,3.3141,3.4904,3.55,3.55,3.55,3.55,3.55,3.55,3.5692,3.6135,3.7257,3.7988,3.87,3.9804,4.0304,4.0496,4.0496,4.0496,4.0496,4.0496,4.0496,4.0496,4.0496,4.0496,4.0496,4.0496,4.0496,4.0496,4.0496,4.0496,4.0496,4.0496,4.0496,4.0496,4.0496,4.0496,4.0441,4.0241,3.9953,3.9837,4.005,4.1343,4.2136,4.2236,4.3498,4.4091,4.3868,4.3726,4.3726,4.3868,4.3744,4.3679,4.3679,4.3807,4.3868,3.55,3.55,0.0,3.5289,3.4511,0.0,3.374,0.0,0.0,0.0,0.0,0.0,0.0,0.0,0.0,0.0,0.0,0.0,0.0,0.0,0.0,0.0,0.0,0.0,0.0,0.0,3.3788,3.4993,3.3737,0.0,0.0,0.0,3.4526,3.4205,3.3141,3.2295,3.1718,3.1135,3.0712,3.0404,3.0404,3.0404,3.0404,3.0404,3.0404,3.0404,3.0404,3.0404,3.0404,3.0404,3.0404,3.0404,3.0404,3.0923,3.1737,3.2025,3.2852,3.3987,3.5115,3.55,3.55,3.55,3.55,3.55,3.55,3.5923,3.6615,3.77,3.843,3.9142,4.0227,4.0496,4.0496,4.0496,4.0496,4.0496,4.0496,4.0496,4.0496,4.0496,4.0496,4.0496,4.0496,4.0414,4.0389,4.0481,4.0496,4.0496,4.0496,4.0496,4.0465,4.0364,4.0356,4.0319,4.0181,3.9974,4.0055,4.0555,4.1572,4.221,4.2303,4.3285,4.3726,4.3496,4.3515,4.3515,4.3515,4.3515,4.3515,4.3515,4.3515,4.3515]}]]